                ,  0.301,  0.397,  0.494,  0.590,  0.687,  0.784,  0.880,  0.977,  1.073,  1.170,  1.267,  1.363,  1.460,  1.556,  1.653,  1.749,  1.846,  1.943,  2.039,  2.136,  2.232,  2.329,  2.426,  2.522,  2.619,  2.715,  2.812,  2.909,  3.005,  3.102,  3.198,  3.295,  3.392,  3.488,  3.585,  3.681,  3.778,  3.875,  3.971,  4.068,  4.164,  4.261,  4.357,  4.454,  4.551,  4.647,  4.744,  4.840,  4.937,  5.034,  5.130,  5.227,  5.323,  5.420,  5.517,  5.613,  5.710,  5.806,  5.903,  6.000,  6.096,  6.193,  6.289,  6.386,  6.483,  6.579,  6.676,  6.772,  6.869,  6.965,  7.062,  7.159,  7.255,  7.352,  7.448,  7.545,  7.642,  7.738,  7.835,  7.931
2011/11/20 00:00,  999.0,    3.9,    3.2,    6.0,  999.0,  999.0,    6.2,  999.0,  999.0,  999.0,  999.0,   12.6,   11.2,   10.5,   17.9,   24.5,   21.0,   14.3,   14.7,   13.6,   14.6,   14.9,   13.9,   12.2,   11.7,  999.0,   -0.4,  999.0,  999.0,   -0.4,  999.0,    0.4,  999.0,  999.0,  999.0,  999.0,  999.0,   -0.6,   -0.2,   -0.5,  999.0,   -0.6,  999.0,  999.0,  999.0,  999.0,  999.0,  999.0,    0.2,  999.0,   -0.1,  999.0,    0.1,    1.2,    0.7,    0.3,    0.1,    0.7,   -0.1,    0.6,  999.0,  999.0,   -0.9,    0.9,    0.4,  999.0,  999.0,  999.0,  999.0,  999.0,    0.1,  999.0,    0.1,    0.2,  999.0,  999.0,  999.0,  999.0,  999.0,  999.0
2011/11/20 00:10,  999.0,    2.5,    5.8,    5.8,    6.2,    4.5,    2.0,    0.7,    1.0,  999.0,  999.0,  999.0,  999.0,  999.0,    2.4,    5.8,    5.3,    3.9,   -0.3,    3.3,    6.8,    2.5,   -0.7,   -0.6,   -0.6,   -0.5,   -0.7,   -0.2,   -0.1,   -0.2,    0.1,   -0.4,   -0.3,   -0.2,   -0.2,    0.1,    0.2,   -0.0,    0.7,    0.3,   -0.0,   -0.2,   -0.7,    0.2,   -0.1,  999.0,   -0.3,   -0.3,   -0.3,    0.1,  999.0,  999.0,   -0.0,    0.3,    0.4,    0.4,    0.2,  999.0,  999.0,  999.0,    0.0,    0.3,  999.0,   -0.2,   -0.5,   -0.1,  999.0,  999.0,   -0.1,  999.0,  999.0,    0.0,   -0.2,  999.0,  999.0,  999.0,  999.0,  999.0,  999.0,  999.0
2011/11/20 00:20,  999.0,  999.0,  999.0,  999.0,  999.0,    3.5,    0.3,   -0.1,   -1.9,   -0.4,   -1.4,   -1.6,   -2.1,   -1.9,    0.1,    1.1,    1.8,    1.8,    1.4,    1.6,   -0.3,   -0.8,    0.1,   -0.2,   -1.2,   -1.6,   -0.9,   -0.6,   -0.3,    0.1,   -0.3,   -0.3,   -0.0,   -0.2,    0.1,    0.1,   -0.2,    0.2,   -0.0,    0.3,   -0.2,   -0.9,   -0.9,   -0.0,   -0.0,  999.0,    0.4,   -0.1,   -0.2,   -0.2,    0.2,    0.3,    0.7,    0.9,    1.4,  999.0,    0.7,    0.4,    0.6,    0.2,    0.4,    0.1,    0.0,   -0.2,  999.0,    0.2,  999.0,  999.0,    0.0,  999.0,    0.3,  999.0,   -0.1,    0.3,  999.0,  999.0,  999.0,  999.0,  999.0,  999.0
2011/11/20 00:30,  999.0,    0.3,    1.4,    1.0,    1.1,    0.6,    0.2,   -0.4,   -0.3,   -0.2,   -0.6,   -0.3,   -0.2,   -0.1,    0.0,    0.1,   -0.1,   -0.0,    0.0,   -0.2,    2.0,    1.2,   -0.9,   -1.2,   -1.4,   -0.9,   -0.9,   -0.4,   -0.3,    0.2,    0.2,   -0.1,   -0.0,  999.0,    0.4,  999.0,   -0.0,   -0.2,   -0.3,   -1.2,   -2.0,   -1.1,   -1.2,   -0.0,    0.2,   -0.2,   -0.2,   -0.3,    0.0,  999.0,   -0.1,   -0.2,    0.4,    0.1,    0.3,    0.0,    0.1,  999.0,  999.0,    0.2,  999.0,    0.1,   -0.0,    0.2,   -0.1,  999.0,  999.0,  999.0,  999.0,  999.0,  999.0,  999.0,  999.0,  999.0,  999.0,  999.0,  999.0,  999.0,  999.0,  999.0
2011/11/20 00:40,  999.0,    0.2,    1.3,    0.6,    0.4,    0.9,   -0.1,   -0.2,    0.3,    0.2,   -0.0,   -0.2,   -0.2,   -0.3,   -0.1,   -0.1,   -0.0,    0.0,   -0.1,   -0.1,   -0.0,   -0.0,    0.1,   -0.2,   -0.1,    0.1,   -0.1,   -0.7,   -0.4,    0.1,    0.1,    0.2,  999.0,   -0.1,   -0.3,  999.0,  999.0,   -0.4,  999.0,   -1.1,   -0.3,  999.0,  999.0,   -0.7,   -0.5,   -0.5,    0.0,   -0.5,   -0.1,  999.0,    0.0,  999.0,   -0.3,   -0.2,   -0.1,   -0.0,   -0.6,  999.0,    0.0,    0.1,  999.0,   -0.0,  999.0,   -0.3,   -0.1,  999.0,  999.0,  999.0,  999.0,  999.0,  999.0,  999.0,  999.0,  999.0,  999.0,  999.0,  999.0,  999.0,  999.0,  999.0
2011/11/20 00:50,  999.0,   -0.0,    0.4,    0.8,    0.5,    0.3,    0.5,    0.5,    0.1,    0.2,    0.2,  999.0,   -0.0,   -0.1,    3.5,    3.9,    5.8,  999.0,    5.1,   -0.2,  999.0,    1.6,   -0.9,   -0.0,   -1.8,   -1.5,   -1.5,   -1.7,   -1.7,   -1.5,    0.0,   -0.9,   -0.7,   -0.7,  999.0,  999.0,  999.0,  999.0,   -0.5,   -0.5,   -0.2,   -0.1,    0.0,    0.0,    0.1,   -0.1,   -0.1,   -0.5,   -0.3,  999.0,   -0.2,  999.0,   -0.2,   -0.1,   -0.5,   -0.3,    0.0,   -0.1,   -0.2,   -0.2,   -0.4,  999.0,   -0.1,   -0.1,    0.1,  999.0,  999.0,  999.0,  999.0,  999.0,  999.0,  999.0,  999.0,  999.0,  999.0,  999.0,  999.0,  999.0,  999.0,  999.0
2011/11/20 01:00,  999.0,    0.8,    1.2,    1.4,    1.3,    1.7,    0.0,    1.1,    0.9,    0.1,    0.1,   -0.0,   -0.4,   -0.5,    4.7,    5.4,    5.2,   -1.0,  999.0,  999.0,  999.0,  999.0,  999.0,  999.0,   10.7,   13.4,   13.3,   12.8,   11.6,    8.8,  999.0,    6.7,  999.0,  999.0,  999.0,  999.0,  999.0,   -0.1,    0.0,  999.0,   -0.4,   -0.5,  999.0,   -0.3,    0.5,    0.1,    0.1,    0.3,   -0.1,  999.0,   -0.1,   -0.5,    0.1,   -0.1,   -0.2,    0.1,    0.2,   -0.1,   -0.2,   -0.1,   -0.2,   -0.1,  999.0,   -0.2,   -0.4,    0.2,    0.2,  999.0,  999.0,  999.0,  999.0,  999.0,  999.0,   -0.4,  999.0,  999.0,  999.0,  999.0,  999.0,  999.0
2011/11/20 01:10,  999.0,    0.8,    2.5,    2.3,    1.0,    0.4,    0.5,    0.2,    0.2,   -0.3,   -1.5,   -1.5,   -1.8,   -2.4,   -2.7,   -3.0,   -3.5,   -4.9,   -4.5,   -7.9,  -10.5,   -9.7,  -10.1,   -7.9,   -7.2,   -4.9,   -6.3,   -2.4,   -5.4,   -9.4,   -4.4,   -2.4,   -0.5,  999.0,   -0.1,    0.2,    0.1,  999.0,  999.0,  999.0,   -0.0,  999.0,   -0.4,  999.0,    0.1,    0.0,   -0.2,    0.3,    0.5,  999.0,    0.2,  999.0,    0.0,    0.0,   -0.0,   -0.3,  999.0,    0.1,    0.1,   -0.3,    0.1,   -0.0,  999.0,    0.2,    0.2,   -0.2,  999.0,  999.0,  999.0,  999.0,  999.0,  999.0,  999.0,   -0.0,  999.0,  999.0,  999.0,  999.0,  999.0,  999.0
2011/11/20 01:20,  999.0,    1.7,    1.8,    1.3,    0.2,   -0.2,    0.2,   -0.3,   -0.0,    0.9,   -0.5,    1.2,    3.5,    6.1,    6.7,    6.1,   15.1,   18.2,   11.8,    2.9,    7.8,   10.5,    7.6,   13.4,   11.7,    8.5,    4.0,    3.9,    6.7,  999.0,  999.0,  999.0,  999.0,  999.0,  999.0,  999.0,  999.0,  999.0,  999.0,  999.0,  999.0,   -0.7,   -0.1,   -0.2,   -0.1,   -0.3,   -0.0,   -0.1,    0.1,    0.0,   -0.2,    0.2,   -0.0,   -0.0,  999.0,    0.2,   -0.1,   -0.6,  999.0,    0.0,    0.1,  999.0,   -0.1,   -0.1,    0.4,  999.0,  999.0,  999.0,  999.0,  999.0,  999.0,  999.0,  999.0,  999.0,  999.0,  999.0,  999.0,  999.0,  999.0,  999.0
2011/11/20 01:30,  999.0,  999.0,    1.2,    0.6,    3.1,    2.7,  999.0,  999.0,  999.0,    2.4,    4.5,   14.8,   13.9,   16.4,   18.9,   16.9,   15.9,   17.1,   15.0,   17.4,   20.0,   23.3,   26.3,   27.2,   27.9,   29.4,   27.8,   26.0,   27.9,   28.8,  999.0,  999.0,  999.0,  999.0,  999.0,  999.0,  999.0,  999.0,  999.0,  999.0,  999.0,  999.0,  999.0,    0.1,    0.2,    0.2,   -0.0,    0.0,   -0.0,  999.0,   -0.9,  999.0,    0.0,   -0.3,    0.1,    0.6,    0.2,    0.1,    0.0,    0.1,  999.0,   -0.2,   -0.2,   -0.8,  999.0,  999.0,  999.0,  999.0,  999.0,  999.0,  999.0,  999.0,  999.0,  999.0,  999.0,  999.0,  999.0,  999.0,  999.0,  999.0
2011/11/20 01:40,  999.0,    0.1,   -0.2,    0.6,    2.6,    2.9,    3.7,    4.4,    4.4,   -0.2,    5.1,  999.0,    6.5,   17.6,   21.4,   22.2,   18.7,   19.4,   20.6,   22.1,   20.4,   19.4,   19.8,   22.9,   23.1,   24.8,   24.1,   23.3,   23.6,   22.8,   26.3,   29.6,  999.0,  999.0,  999.0,  999.0,  999.0,  999.0,  999.0,  999.0,  999.0,  999.0,  999.0,  999.0,    0.0,   -0.1,    0.0,   -0.1,   -0.5,   -0.6,  999.0,   -0.2,  999.0,    0.2,    0.1,   -0.2,   -0.0,  999.0,  999.0,    0.1,  999.0,    0.3,  999.0,    0.4,   -0.0,  999.0,  999.0,  999.0,  999.0,  999.0,  999.0,  999.0,  999.0,  999.0,  999.0,  999.0,  999.0,  999.0,  999.0,  999.0
2011/11/20 01:50,  999.0,    1.7,    2.0,   -0.1,    1.7,    1.3,   -0.1,   -1.7,    1.8,    1.4,  999.0,  999.0,   -0.2,    0.2,    0.5,    0.3,    0.2,    0.1,  999.0,    0.3,    0.1,  999.0,  999.0,  999.0,  999.0,  999.0,    4.1,    5.0,    4.9,    5.2,    4.7,    5.6,    2.9,  999.0,  999.0,   -0.5,  999.0,  999.0,  999.0,  999.0,  999.0,  999.0,  999.0,    0.1,  999.0,  999.0,  999.0,  999.0,  999.0,  999.0,  999.0,  999.0,  999.0,    0.1,  999.0,  999.0,  999.0,  999.0,    0.2,    0.0,  999.0,  999.0,  999.0,  999.0,  999.0,  999.0,  999.0,  999.0,  999.0,  999.0,  999.0,  999.0,  999.0,  999.0,  999.0,  999.0,  999.0,  999.0,  999.0,  999.0
2011/11/20 02:00,  999.0,    0.9,    1.4,  999.0,    1.0,  999.0,    3.0,    3.0,    2.3,    0.7,   -0.4,    2.6,    2.8,   -0.7,   -0.5,   -0.0,  999.0,   -0.2,  999.0,    6.7,  999.0,  999.0,  999.0,  999.0,  999.0,   16.4,   17.3,   18.3,   19.9,   20.8,   21.7,  999.0,  999.0,  999.0,  999.0,  999.0,  999.0,  999.0,  999.0,  999.0,  999.0,  999.0,  999.0,  999.0,  999.0,  999.0,  999.0,  999.0,  999.0,  999.0,  999.0,  999.0,  999.0,  999.0,  999.0,  999.0,  999.0,  999.0,  999.0,  999.0,  999.0,  999.0,  999.0,  999.0,  999.0,  999.0,  999.0,  999.0,  999.0,  999.0,  999.0,  999.0,  999.0,  999.0,  999.0,  999.0,  999.0,  999.0,  999.0,  999.0
2011/11/20 02:10,  999.0,    0.6,    1.0,    0.9,    2.8,    2.7,   -0.0,   -0.5,    0.5,    0.6,    1.5,    0.5,    2.4,   -2.5,   -2.6,  999.0,  999.0,   12.1,   12.6,    6.8,  999.0,  999.0,   14.7,   13.2,   18.9,   18.1,   18.8,   18.4,   17.9,  999.0,  999.0,  999.0,  999.0,  999.0,  999.0,  999.0,  999.0,  999.0,  999.0,  999.0,  999.0,  999.0,  999.0,  999.0,  999.0,  999.0,  999.0,  999.0,  999.0,  999.0,  999.0,   -0.2,  999.0,   -0.1,    0.0,   -0.4,  999.0,   -0.2,   -0.2,    0.2,    0.1,  999.0,  999.0,  999.0,    0.1,  999.0,  999.0,  999.0,  999.0,  999.0,  999.0,  999.0,  999.0,  999.0,  999.0,  999.0,  999.0,  999.0,  999.0,  999.0
2011/11/20 02:20,  999.0,   -0.3,    1.6,    2.6,    1.1,    1.0,    0.3,    0.0,   -0.2,   -0.0,   -0.4,    0.1,   -0.6,   -0.7,   -0.2,   -0.0,    0.0,    2.2,    1.9,    1.6,   -0.2,   -0.0,   -0.5,   -0.8,   -0.6,   -0.7,   -0.5,   -0.0,   -0.2,   -0.1,   -0.0,   -0.2,  999.0,   -0.1,   -0.3,   -0.2,    0.4,    0.0,    0.1,   -0.1,   -0.4,  999.0,    0.2,    0.3,   -0.4,   -0.2,   -0.1,   -0.3,    0.5,    0.3,  999.0,   -0.0,  999.0,   -0.1,    0.3,  999.0,    0.1,    0.1,    0.1,    0.5,    0.2,    0.4,   -0.4,   -0.3,   -0.4,  999.0,  999.0,  999.0,  999.0,  999.0,  999.0,  999.0,  999.0,  999.0,  999.0,  999.0,  999.0,  999.0,  999.0,  999.0
2011/11/20 02:30,  999.0,    0.3,    2.0,    1.8,    1.1,    1.1,   -0.6,    0.5,    0.0,    0.8,    0.2,    2.1,   -0.0,   -0.2,   -0.1,   -0.4,   -0.4,   -0.2,   -0.2,    0.5,   -0.3,  999.0,    0.0,   -0.9,    0.0,   -0.7,   -0.5,   -0.1,   -0.5,   -0.3,   -0.7,   -0.9,  999.0,  999.0,    0.5,   -1.4,    0.3,    0.3,  999.0,   -0.1,   -0.1,   -0.2,   -0.4,   -0.1,    0.2,    0.0,    0.1,   -0.1,    0.3,    0.1,    0.2,    0.4,    0.2,   -0.1,    0.2,    0.1,   -0.1,    0.6,   -0.2,    0.2,   -0.1,  999.0,   -0.1,   -0.2,   -0.2,    0.0,  999.0,  999.0,  999.0,  999.0,  999.0,  999.0,  999.0,  999.0,  999.0,  999.0,  999.0,  999.0,  999.0,  999.0
2011/11/20 02:40,  999.0,  999.0,  999.0,   -0.4,    0.7,    0.0,   -0.1,   -0.4,   -1.0,   -0.4,  999.0,   -0.9,    0.0,   -0.3,    0.1,   -0.1,    0.1,    0.2,    0.6,    0.2,    0.4,    0.9,  999.0,  999.0,  999.0,  999.0,  999.0,  999.0,  999.0,  999.0,  999.0,  999.0,  999.0,  999.0,  999.0,    5.2,   -0.4,  999.0,  999.0,   -0.1,   -0.3,   -0.3,   -0.3,   -0.1,   -0.2,    0.1,   -0.0,    0.0,    0.1,  999.0,  999.0,  999.0,  999.0,  999.0,   -0.1,    0.5,    0.1,   -0.0,  999.0,    0.6,  999.0,   -0.3,   -0.0,   -0.1,  999.0,   -0.2,    0.1,  999.0,  999.0,  999.0,  999.0,  999.0,  999.0,  999.0,  999.0,  999.0,  999.0,  999.0,  999.0,  999.0
2011/11/20 02:50,  999.0,   -0.6,   -0.1,   -0.8,   -0.2,   -0.2,    0.7,    0.6,    0.0,    0.5,    0.5,    1.2,    0.7,    0.4,    5.0,    5.2,    5.3,    5.8,    7.7,    8.0,    7.3,    9.4,    4.4,  999.0,  999.0,  999.0,  999.0,   13.1,  999.0,  999.0,  999.0,  999.0,  999.0,  999.0,  999.0,  999.0,  999.0,  999.0,    2.8,   -0.9,   -0.2,   -0.2,   -0.0,   -0.2,   -0.4,   -0.3,   -0.1,    0.1,    0.1,   -0.1,    0.2,   -0.1,  999.0,   -0.5,   -0.0,    0.3,   -0.1,    0.2,    0.2,    0.1,   -0.7,    0.0,    0.4,   -0.2,    0.4,    0.3,  999.0,  999.0,  999.0,  999.0,  999.0,  999.0,  999.0,  999.0,  999.0,  999.0,  999.0,  999.0,  999.0,  999.0
2011/11/20 03:00,  999.0,  999.0,  999.0,    2.9,  999.0,  999.0,  999.0,  999.0,   -1.4,  999.0,  999.0,  999.0,    0.7,  999.0,  999.0,  999.0,  999.0,   17.1,   18.7,   23.9,  999.0,   20.6,  999.0,  999.0,  999.0,   16.9,  999.0,   11.2,   17.0,   15.4,   18.8,   19.5,  999.0,  999.0,  999.0,  999.0,  999.0,  999.0,  999.0,  999.0,  999.0,   -1.1,  999.0,   -0.0,   -0.0,    0.2,    0.1,   -0.0,   -0.1,  999.0,   -0.2,    0.4,  999.0,  999.0,   -0.3,  999.0,  999.0,   -0.1,    0.0,   -0.1,  999.0,  999.0,  999.0,   -0.1,  999.0,  999.0,  999.0,  999.0,  999.0,  999.0,  999.0,  999.0,  999.0,  999.0,  999.0,  999.0,  999.0,  999.0,  999.0,  999.0
2011/11/20 03:10,  999.0,  999.0,  999.0,  999.0,  999.0,  999.0,  999.0,   -9.2,  -14.0,   -5.5,   -4.5,   -9.8,   -9.9,   -1.9,   -3.2,   -5.0,  999.0,  999.0,   -0.2,   -1.3,  999.0,   -0.6,  999.0,    4.7,  999.0,  999.0,  999.0,  999.0,  999.0,  999.0,  999.0,    3.6,   24.3,   23.9,   19.2,  999.0,  999.0,   -1.5,  999.0,    1.1,    0.6,   -0.8,   -0.3,    0.1,   -0.8,   -0.3,    0.1,    0.3,    0.0,  999.0,  999.0,  999.0,  999.0,    0.1,    0.4,  999.0,    0.3,   -0.2,   -0.3,   -0.2,   -0.1,   -0.2,  999.0,  999.0,   -0.1,  999.0,   -0.2,  999.0,  999.0,  999.0,  999.0,  999.0,  999.0,    0.0,  999.0,  999.0,  999.0,  999.0,  999.0,  999.0
2011/11/20 03:20,  999.0,  999.0,  999.0,   -8.6,   -5.6,  999.0,  999.0,    1.0,   -1.2,    4.4,    3.2,  999.0,   -4.7,  999.0,   -6.9,  999.0,  999.0,  999.0,  999.0,  999.0,  999.0,  999.0,  999.0,  999.0,  -11.1,  999.0,  999.0,  999.0,  999.0,  999.0,  999.0,  999.0,  999.0,  999.0,  -14.9,  -11.9,  999.0,  999.0,  999.0,  999.0,  999.0,  999.0,  999.0,  999.0,    0.4,   -0.5,   -0.1,    0.1,   -0.0,  999.0,   -0.1,  999.0,   -0.3,    0.4,    0.3,   -0.1,    0.2,   -0.1,   -0.3,   -1.5,   -0.3,   -0.5,   -0.2,   -0.4,   -0.3,   -0.0,  999.0,  999.0,    0.3,  999.0,  999.0,  999.0,  999.0,  999.0,  999.0,  999.0,  999.0,  999.0,  999.0,  999.0
2011/11/20 03:30,  999.0,  -16.8,  -14.3,   -2.3,   -3.8,   -3.0,   -5.0,   -1.8,   -1.0,    2.1,    4.9,    4.9,   11.2,   -1.6,    3.7,    8.9,  999.0,  -27.3,   -2.4,    3.1,  -22.6,   -2.2,   -2.9,  999.0,   -9.6,  999.0,   12.0,  999.0,  999.0,  999.0,  999.0,  999.0,  999.0,  999.0,   23.6,  999.0,  999.0,  999.0,  999.0,  999.0,  999.0,  999.0,  999.0,  999.0,    0.0,    0.1,    0.0,   -0.1,   -0.1,  999.0,    0.1,   -0.2,    0.1,   -0.0,   -0.0,    0.3,   -0.2,   -0.1,   -0.4,   -0.7,   -0.4,   -0.4,   -0.0,    0.1,    0.1,    0.1,  999.0,  999.0,  999.0,  999.0,  999.0,  999.0,  999.0,  999.0,  999.0,  999.0,  999.0,  999.0,  999.0,  999.0
2011/11/20 03:40,  999.0,  999.0,    1.6,    3.9,   -0.8,    0.9,   -0.0,    0.7,    4.6,    6.8,   10.7,    6.3,    7.1,    9.0,    9.7,    9.2,   10.3,  999.0,  999.0,  999.0,  999.0,  999.0,  999.0,  999.0,  999.0,  999.0,  999.0,  999.0,  999.0,  999.0,  999.0,  999.0,  999.0,   -2.5,  999.0,  999.0,  999.0,  999.0,  999.0,  999.0,  999.0,  999.0,  999.0,    0.2,   -0.5,  999.0,  999.0,   -0.4,   -0.3,    0.1,   -0.1,  999.0,    0.0,    0.1,   -0.1,  999.0,   -0.5,   -0.2,   -0.3,   -0.5,    0.2,   -1.6,   -0.7,  999.0,  999.0,  999.0,    0.1,  999.0,  999.0,  999.0,  999.0,  999.0,  999.0,  999.0,  999.0,  999.0,  999.0,  999.0,  999.0,  999.0
2011/11/20 03:50,  999.0,  999.0,   -0.3,   -0.1,    0.1,   -0.5,   -0.1,   -0.2,   -0.0,   -0.0,   -0.4,    0.1,   -0.1,   -0.1,    0.1,    4.0,    0.1,   -0.0,   -5.7,   -4.0,   -0.0,   -3.4,    0.3,    0.3,    0.2,    0.2,   -0.2,   -0.2,   -0.1,   -0.4,   -0.4,   -0.7,   -0.2,   -0.0,   -0.1,  999.0,    0.3,   -0.0,    0.6,    0.1,   -0.2,    0.0,    0.1,    0.1,   -0.1,   -0.1,   -0.0,   -0.2,   -0.1,   -0.1,   -0.1,   -0.1,    0.0,   -0.0,    0.1,   -0.2,   -0.4,    0.2,    0.4,   -0.3,  999.0,    0.1,  999.0,    0.3,  999.0,    0.1,   -0.0,  999.0,  999.0,  999.0,  999.0,  999.0,  999.0,  999.0,  999.0,  999.0,  999.0,  999.0,  999.0,  999.0
2011/11/20 04:00,  999.0,    0.1,    0.3,    0.0,    0.2,    0.6,    0.5,    0.3,    0.1,   -0.1,   -0.1,    0.2,   -0.1,   -0.2,   -0.2,    0.3,  999.0,  999.0,  999.0,    0.2,   -0.1,    0.0,    0.1,   -0.0,   -0.0,    0.0,   -0.2,   -0.2,   -0.1,   -0.1,   -0.2,   -0.1,   -0.2,   -0.2,   -0.4,   -0.6,   -0.3,   -0.0,   -0.1,    0.1,   -0.2,   -0.1,    0.3,   -0.2,   -0.1,   -0.1,   -0.3,    0.1,    0.1,  999.0,    0.0,   -0.3,   -0.2,   -0.1,   -0.0,   -0.4,    0.2,   -0.6,   -0.2,   -0.2,   -0.1,    0.1,   -0.2,   -0.1,  999.0,    0.2,   -0.1,    0.2,  999.0,  999.0,  999.0,    0.6,  999.0,  999.0,  999.0,  999.0,  999.0,  999.0,  999.0,  999.0
2011/11/20 04:10,  999.0,    0.2,    0.4,    1.1,    0.4,    0.8,    1.7,  999.0,  999.0,   -0.0,  999.0,    8.3,   13.3,   16.1,   13.7,   18.1,   20.3,   13.8,   11.8,  999.0,   -0.1,  999.0,    0.3,    0.1,    0.0,    0.1,   -0.2,   -0.1,    0.1,   -0.2,   -0.2,   -0.3,   -0.4,   -0.8,  999.0,   -0.6,   -0.1,    0.0,   -0.1,   -0.1,   -0.7,   -0.5,   -0.0,    0.5,    0.1,  999.0,  999.0,   -0.1,   -0.4,  999.0,   -0.2,   -0.7,   -1.2,  999.0,    0.4,   -0.2,    0.4,   -0.0,   -0.3,    0.2,  999.0,   -0.2,   -0.0,  999.0,  999.0,  999.0,  999.0,  999.0,  999.0,  999.0,  999.0,  999.0,  999.0,  999.0,  999.0,  999.0,  999.0,  999.0,  999.0,  999.0
2011/11/20 04:20,  999.0,  999.0,   -0.1,    0.9,    0.4,  999.0,  999.0,  999.0,    0.7,  999.0,  999.0,    3.5,  999.0,    6.5,    7.7,    7.3,    4.3,   10.4,   10.9,    5.4,    4.7,   -0.4,    0.7,   -0.1,   -1.0,   -0.2,  999.0,  999.0,  999.0,  999.0,    0.1,   -0.3,  999.0,  999.0,  999.0,  999.0,  999.0,  999.0,  999.0,   -0.7,    0.0,  999.0,  999.0,    0.2,   -0.1,    0.1,   -0.0,   -0.4,    0.1,  999.0,    0.0,    0.7,   -0.3,   -0.1,    0.3,    0.1,    0.3,    0.0,    0.0,   -0.1,   -0.5,   -0.1,    0.5,    0.4,   -0.1,   -0.1,  999.0,  999.0,  999.0,  999.0,  999.0,  999.0,  999.0,  999.0,  999.0,  999.0,  999.0,  999.0,  999.0,  999.0
2011/11/20 04:30,  999.0,    0.2,    0.7,    1.0,    0.3,    0.1,    0.3,    3.3,    2.8,  999.0,    1.8,    2.2,    4.5,    0.2,    2.2,    4.4,    2.6,    1.8,    1.7,    1.9,   -0.0,    0.4,    0.0,   -0.2,    0.1,    0.2,  999.0,    0.2,    0.0,    0.0,   -0.1,   -0.3,   -0.4,    0.0,   -0.0,   -0.5,   -0.2,   -0.3,   -0.0,   -1.7,   -1.2,   -0.9,   -0.4,   -0.1,   -0.3,   -0.5,   -0.2,   -0.1,    0.1,    0.0,    0.0,   -0.0,    0.4,   -0.1,   -0.1,    0.1,   -0.1,    0.0,   -0.4,   -0.3,   -0.2,   -0.1,   -0.0,    0.0,   -0.1,   -0.2,   -0.0,  999.0,  999.0,  999.0,  999.0,  999.0,  999.0,  999.0,  999.0,  999.0,  999.0,  999.0,  999.0,  999.0
2011/11/20 04:40,  999.0,  999.0,   -0.4,  999.0,  999.0,   -0.3,    0.4,   -0.3,    0.3,    0.8,    0.1,    0.3,   -0.1,   -0.0,   -0.4,   -0.1,   -0.4,   -0.2,   -0.2,   -0.3,   -0.3,   -0.3,   -0.8,   -0.2,   -0.1,   -0.1,    0.1,   -0.1,   -0.2,   -0.1,    0.1,    0.0,   -0.3,   -0.4,   -0.8,   -1.1,   -2.2,   -0.4,   -0.1,    0.0,   -0.2,   -0.4,   -0.2,   -0.3,   -0.3,   -0.0,    0.1,    0.2,   -0.1,   -0.0,    0.2,    0.1,   -0.1,   -0.3,    0.1,   -0.1,   -0.3,    0.1,   -0.1,    0.3,    0.1,   -0.0,  999.0,    0.1,  999.0,    0.3,   -0.1,  999.0,    0.1,  999.0,  999.0,  999.0,  999.0,  999.0,  999.0,  999.0,  999.0,  999.0,  999.0,  999.0
2011/11/20 04:50,  999.0,   -0.1,    0.2,    0.4,   -0.0,   -0.1,    0.4,  999.0,    0.3,  999.0,  999.0,  999.0,  999.0,  999.0,  999.0,  999.0,  999.0,  999.0,  999.0,  999.0,  999.0,  999.0,    0.1,   -0.2,   -0.2,   -0.1,    0.2,   -0.1,   -0.2,   -0.1,   -0.2,   -0.1,   -0.1,   -0.1,   -0.4,   -0.5,  999.0,  999.0,    0.6,    0.2,    0.0,  999.0,  999.0,   -0.1,   -0.2,   -0.0,    0.2,    0.0,   -0.2,    0.7,   -0.1,   -0.0,   -0.5,   -0.1,    0.3,    0.4,    0.2,   -0.6,   -0.4,  999.0,   -0.7,  999.0,  999.0,  999.0,    0.1,  999.0,  999.0,  999.0,  999.0,  999.0,  999.0,  999.0,  999.0,  999.0,  999.0,  999.0,  999.0,  999.0,  999.0,  999.0
2011/11/20 05:00,  999.0,   -0.0,    0.2,    0.1,    0.5,    0.2,    0.5,   -0.2,   -0.1,   -0.1,   -0.2,   -0.3,    0.4,    0.1,    0.0,    0.1,    0.2,    0.3,    0.4,    0.2,   -0.4,   -0.7,   -0.4,   -0.1,   -0.4,   -1.4,   -0.1,   -0.2,    0.0,    0.0,   -0.2,   -0.0,    0.1,    0.1,   -0.1,    0.1,    0.2,    0.0,    0.1,   -0.1,    0.2,   -0.3,   -0.6,   -0.7,   -0.5,   -0.1,   -0.2,    0.1,    0.0,  999.0,   -0.2,   -0.6,  999.0,    0.4,    0.4,    0.2,   -0.0,   -0.0,   -0.2,   -0.4,    0.0,    0.1,  999.0,   -1.0,   -0.4,  999.0,  999.0,  999.0,  999.0,  999.0,  999.0,  999.0,    0.1,  999.0,  999.0,  999.0,  999.0,  999.0,  999.0,  999.0
2011/11/20 05:10,  999.0,  999.0,    0.6,   -0.1,   -0.5,    0.3,    1.5,    1.0,  999.0,    1.4,   -0.5,   -0.3,    0.0,   -3.9,   -8.2,   -4.6,   -4.7,   -5.0,  999.0,  999.0,  999.0,  999.0,  999.0,  999.0,  999.0,  -12.6,   -7.2,   -3.5,   -0.3,   -0.1,   -0.4,   -0.1,   -0.2,    0.0,   -0.2,   -0.1,    0.2,   -0.0,   -0.1,   -0.3,   -0.2,   -0.1,   -0.0,    0.1,    0.2,    0.1,    0.1,    0.2,   -0.1,   -0.3,   -0.3,   -0.1,   -0.3,   -0.2,    0.2,   -0.3,   -0.2,  999.0,   -0.3,   -2.1,   -1.0,   -0.9,   -0.6,   -0.1,   -0.2,    0.3,    0.3,    0.4,  999.0,    0.4,    0.2,    0.1,    0.4,  999.0,  999.0,  999.0,  999.0,  999.0,  999.0,  999.0
2011/11/20 05:20,  999.0,    0.2,    0.1,    0.9,    0.3,   -0.1,    1.6,  999.0,    0.4,    0.9,   -2.8,   -2.1,    7.6,    7.5,  999.0,    8.5,    7.0,   -0.6,    0.5,    0.7,    0.9,  999.0,  999.0,  999.0,  999.0,   -0.7,   -0.7,   -0.1,   -0.3,   -0.6,   -0.0,   -0.1,    0.0,   -1.0,  999.0,   -0.3,    0.3,    0.4,    0.4,   -0.1,    0.1,    0.1,   -0.4,   -0.2,    0.0,   -0.0,    0.0,    0.1,    0.0,   -0.2,   -0.1,    0.2,    0.0,   -0.1,    0.3,   -0.2,   -0.1,   -0.1,    0.0,   -0.9,   -1.7,   -1.6,   -0.7,   -0.2,   -0.0,  999.0,  999.0,   -0.1,  999.0,    0.4,  999.0,  999.0,  999.0,  999.0,  999.0,  999.0,  999.0,  999.0,  999.0,  999.0
2011/11/20 05:30,  999.0,   -0.0,    0.1,   -0.1,    0.0,    0.2,    0.4,    0.4,    0.8,    0.1,   -0.4,    0.6,    0.1,   -1.0,   -2.8,   -0.9,   -1.0,   -0.6,   -0.1,   -0.1,   -0.0,    0.7,    0.6,   -0.1,   -0.2,   -0.2,   -0.1,    0.1,   -0.3,   -0.1,   -0.5,   -0.5,    0.2,   -0.2,    0.0,  999.0,   -0.4,   -0.5,   -0.6,    0.1,   -0.3,    0.1,    0.0,   -0.3,   -0.1,   -0.1,   -0.2,   -0.3,   -0.3,   -0.4,    0.1,   -0.6,   -1.2,   -0.6,   -0.3,   -0.3,   -0.3,   -0.2,   -0.1,   -1.6,   -0.9,   -0.6,   -0.6,   -0.5,   -0.3,  999.0,   -0.1,  999.0,   -0.3,  999.0,  999.0,  999.0,  999.0,  999.0,  999.0,  999.0,  999.0,  999.0,  999.0,  999.0
2011/11/20 05:40,  999.0,    0.2,    0.0,    0.0,  999.0,   -0.1,    0.1,   -0.1,   -0.1,    0.3,   -0.0,    1.6,    4.1,    3.2,  999.0,    3.0,    3.9,   -0.1,   -0.1,   -0.0,    0.1,    0.2,    0.3,    0.4,    0.0,   -0.1,   -0.5,   -0.1,   -0.0,    0.1,    0.0,   -0.1,    0.1,   -0.2,   -0.0,   -0.2,   -0.5,  999.0,   -0.2,    0.2,   -0.2,   -0.6,   -0.6,   -0.4,   -0.4,   -0.2,   -0.4,   -0.1,    0.3,   -0.5,   -1.0,   -0.6,   -1.0,   -0.9,   -0.5,   -0.5,   -0.3,   -0.5,    0.0,   -1.2,   -0.7,   -1.1,   -0.3,   -0.2,    0.1,   -0.2,    0.2,   -0.1,   -0.4,  999.0,  999.0,  999.0,  999.0,  999.0,  999.0,  999.0,  999.0,  999.0,  999.0,  999.0
2011/11/20 05:50,  999.0,  999.0,    0.0,    0.2,    0.2,   -0.0,  999.0,   -0.3,   -0.4,   -0.2,   -0.1,    0.1,    0.5,    0.2,  999.0,    0.1,    0.1,    0.2,   -0.0,   -0.0,   -0.0,    0.3,    0.1,    0.0,    0.2,    0.0,   -0.1,   -0.0,   -0.0,    0.1,    0.1,   -0.1,   -0.1,    0.1,    0.1,    0.6,   -0.1,    0.1,   -0.1,   -0.0,   -0.1,    0.1,    0.2,   -0.0,   -0.2,   -0.3,   -0.3,   -0.1,    0.0,   -0.5,   -0.1,   -0.3,   -0.7,   -0.9,   -1.2,   -0.3,   -0.4,   -0.6,   -0.4,   -0.7,   -0.8,   -1.7,    0.1,    0.1,    0.2,   -0.1,    0.3,    0.3,   -0.3,  999.0,  999.0,  999.0,  999.0,  999.0,  999.0,  999.0,  999.0,  999.0,  999.0,  999.0
2011/11/20 06:00,  999.0,   -0.0,    0.0,    0.1,   -0.0,   -0.1,   -0.0,   -0.2,   -0.1,    0.1,    1.1,    1.1,   -0.0,   -0.1,   -0.2,    0.0,   -0.1,   -0.1,  999.0,    0.1,   -0.2,   -0.0,   -0.0,   -0.3,   -0.2,   -0.1,   -0.1,   -0.0,   -0.1,   -0.2,   -0.4,   -0.1,    0.1,    0.3,    0.1,   -0.1,   -0.4,   -0.1,   -0.7,   -0.3,   -0.2,    0.2,    0.4,   -0.2,   -0.3,   -0.6,  999.0,   -0.6,   -0.7,   -0.7,   -0.4,   -0.5,   -0.3,   -1.3,   -0.9,   -0.8,   -0.4,    0.0,   -0.2,    0.1,    0.3,   -0.4,    0.2,  999.0,  999.0,   -0.2,   -0.3,    0.4,    0.1,  999.0,  999.0,  999.0,   -0.5,  999.0,  999.0,  999.0,  999.0,  999.0,  999.0,  999.0
2011/11/20 06:10,  999.0,  999.0,    0.0,    0.1,    0.1,    0.1,   -0.1,    0.2,    0.9,    0.3,   -0.3,   -0.2,    0.1,   -0.1,   -0.0,    0.0,   -0.0,   -0.5,   -0.1,    0.0,   -0.1,   -0.0,   -0.1,   -0.1,   -0.2,   -0.1,   -0.3,   -0.0,   -0.3,   -0.3,   -0.4,   -0.0,   -0.3,   -0.2,   -0.4,    0.3,   -0.5,   -0.6,   -0.2,   -0.2,   -0.2,  999.0,   -0.4,   -0.6,   -0.6,   -1.1,   -0.9,   -0.6,   -0.8,   -0.5,   -0.1,   -0.4,  999.0,  999.0,  999.0,   -0.3,  999.0,  999.0,  999.0,  999.0,  999.0,  999.0,    0.1,   -0.2,   -0.3,  999.0,  999.0,  999.0,  999.0,  999.0,  999.0,  999.0,  999.0,  999.0,  999.0,  999.0,  999.0,  999.0,  999.0,  999.0
2011/11/20 06:20,  999.0,   -0.1,    0.4,    0.2,    0.3,    0.5,    0.3,   -0.0,   -0.0,    0.2,   -0.0,   -0.3,   -0.2,   -0.4,   -0.4,   -0.4,   -0.8,   -0.7,  999.0,   -0.1,   -0.0,   -0.1,    0.1,   -0.1,    0.1,   -0.2,   -0.1,   -0.1,   -0.0,   -0.1,   -0.1,   -0.2,    0.2,    0.2,   -0.7,   -0.8,  999.0,  999.0,   -0.9,   -0.9,   -1.4,   -0.5,  999.0,   -0.8,   -1.3,   -0.9,  999.0,  999.0,   -0.1,   -0.0,  999.0,    0.2,  999.0,  999.0,   -0.2,   -0.4,  999.0,  999.0,  999.0,    0.2,  999.0,  999.0,  999.0,   -0.0,   -0.1,  999.0,  999.0,  999.0,   -0.0,  999.0,    0.0,  999.0,   -0.3,  999.0,  999.0,  999.0,  999.0,  999.0,  999.0,  999.0
2011/11/20 06:30,  999.0,  999.0,    0.1,   -0.0,    0.0,    0.0,   -0.1,  999.0,  999.0,    0.0,    0.0,  999.0,    0.0,   -0.1,  999.0,  999.0,    0.1,   -0.1,  999.0,   -0.1,  999.0,   -0.0,   -0.1,   -0.1,   -0.1,   -0.0,   -0.0,    0.1,    0.0,    0.1,    0.0,    0.1,   -0.1,    0.4,    1.5,  999.0,  999.0,    0.2,    0.1,    0.3,   -0.1,    0.1,   -0.1,   -0.7,  999.0,   -0.8,   -0.1,   -0.8,   -1.2,   -0.1,   -1.4,  999.0,   -0.7,   -1.3,   -0.9,  999.0,    0.3,  999.0,  999.0,   -0.2,   -0.3,   -0.1,   -0.1,   -0.1,   -0.2,  999.0,   -0.4,   -0.2,   -0.1,  999.0,   -0.2,   -0.5,  999.0,  999.0,  999.0,  999.0,  999.0,  999.0,  999.0,  999.0
2011/11/20 06:40,  999.0,  999.0,   -0.1,   -0.0,    0.1,    0.0,   -0.0,  999.0,   -0.2,   -0.1,   -0.1,   -0.1,    0.7,   -0.2,    0.1,    0.1,    0.0,   -0.0,   -0.0,   -0.0,   -0.3,   -0.1,   -0.1,    0.0,    0.1,    0.1,    0.1,    0.1,    0.0,    0.1,    0.1,    0.1,    0.3,    0.1,    0.1,   -0.2,    0.4,    0.4,   -0.0,    0.5,   -0.1,   -0.3,    0.3,   -0.0,   -0.1,    0.2,   -0.0,   -0.0,   -0.3,   -0.6,   -0.5,   -0.4,    0.1,   -0.1,   -0.3,    0.2,    0.1,    0.0,   -0.3,   -0.3,    0.1,    0.1,    0.0,    0.1,   -0.2,    0.0,  999.0,   -0.1,    0.0,    0.3,   -0.0,    0.0,  999.0,  999.0,  999.0,  999.0,  999.0,  999.0,  999.0,  999.0
2011/11/20 06:50,  999.0,  999.0,    0.0,    0.2,   -0.1,    0.1,    0.1,    0.0,  999.0,    0.0,    4.7,    8.0,    5.0,    5.5,    4.6,   -0.1,   -0.2,  999.0,  999.0,   -0.1,  999.0,   -0.1,   -0.0,   -0.2,   -0.3,   -0.1,    0.2,   -0.1,    0.0,   -0.4,   -0.2,    0.2,    0.0,    0.3,   -0.0,    0.1,    0.2,    0.2,   -0.1,   -0.2,   -0.0,    0.3,    0.2,    0.4,    0.2,    1.5,    0.1,    0.2,    0.1,    0.9,   -0.4,    0.8,    1.2,    0.6,    0.5,    0.5,    0.4,   -0.3,    0.3,    0.3,    0.3,    0.2,    0.0,   -0.1,    0.0,    0.5,  999.0,    0.1,  999.0,  999.0,    0.1,   -0.0,  999.0,  999.0,  999.0,  999.0,  999.0,  999.0,  999.0,  999.0
2011/11/20 07:00,  999.0,  999.0,    0.2,    0.1,    0.3,   -0.1,   -0.0,  999.0,    0.1,    0.1,   -0.1,   -0.4,   -0.1,    0.0,  999.0,  999.0,    0.1,   -0.1,    0.1,   -0.5,   -0.0,   -0.0,   -0.2,   -1.5,   -7.2,   -0.3,    5.1,    4.9,  999.0,  999.0,  999.0,  999.0,   17.7,   15.7,   13.6,   12.2,   14.2,  999.0,   14.9,   16.8,   18.1,   18.3,  999.0,  999.0,  999.0,  999.0,  999.0,  999.0,  999.0,    5.9,    3.5,    4.3,    0.5,    0.9,   -0.1,   -0.4,    0.2,    0.2,   -0.3,    0.1,    0.0,   -0.2,   -0.1,    0.1,   -0.3,   -0.1,  999.0,    0.4,  999.0,  999.0,  999.0,  999.0,  999.0,    0.1,  999.0,  999.0,  999.0,  999.0,  999.0,  999.0
2011/11/20 07:10,  999.0,  999.0,    3.5,  999.0,  999.0,  999.0,  999.0,  999.0,    5.8,    7.1,    7.6,    6.3,  999.0,  999.0,  999.0,  999.0,  999.0,  999.0,  999.0,  999.0,  -20.1,  -30.5,  -31.0,  999.0,  999.0,  999.0,  999.0,  999.0,   17.6,   17.7,   17.5,   17.0,   17.6,   13.4,   13.5,   14.6,   15.0,   15.1,   16.1,  999.0,   21.4,  999.0,  999.0,  999.0,  999.0,  999.0,  999.0,  999.0,  999.0,  999.0,   -1.2,  999.0,  999.0,  999.0,  999.0,  999.0,   -0.4,    0.1,    0.1,    0.1,    0.2,    0.1,    0.0,    0.1,    0.4,    0.1,  999.0,  999.0,    0.4,  999.0,  999.0,  999.0,  999.0,    0.1,  999.0,  999.0,  999.0,  999.0,  999.0,  999.0
2011/11/20 07:20,  999.0,  999.0,  999.0,  999.0,    0.0,   -0.3,  999.0,  999.0,    7.7,  999.0,  999.0,  999.0,  999.0,  999.0,  999.0,  999.0,  999.0,  999.0,  999.0,  999.0,  999.0,  999.0,  -24.9,  -31.6,  -32.7,  999.0,  999.0,   12.6,   16.7,   16.6,  999.0,   17.9,   12.9,   12.7,   12.5,   13.0,   15.0,   16.1,   17.7,   18.9,   20.3,   22.2,   21.7,  999.0,  999.0,  999.0,  999.0,  999.0,   -1.1,    0.2,    0.4,   -1.2,   -0.5,   -0.0,   -0.4,    0.4,    0.4,    0.6,   -0.1,   -0.1,   -0.2,   -0.2,   -0.1,    0.2,   -0.0,   -0.3,    0.0,  999.0,    0.1,  999.0,    0.2,  999.0,    0.1,  999.0,  999.0,  999.0,  999.0,  999.0,  999.0,  999.0
2011/11/20 07:30,  999.0,  999.0,  999.0,    0.3,  999.0,  999.0,  999.0,  999.0,  999.0,  999.0,   22.0,   22.6,  999.0,  999.0,   17.1,  999.0,  999.0,  999.0,  999.0,  999.0,  999.0,  -29.9,  -34.8,  -33.9,  -30.8,  999.0,  999.0,  999.0,   19.5,   20.9,   18.9,   12.2,   16.1,   17.6,   17.8,   18.6,   20.5,   21.6,   21.9,   20.6,   22.6,   23.2,  999.0,  999.0,  999.0,  999.0,  999.0,   -0.5,   -0.4,   -0.0,    0.1,   -0.2,   -0.0,   -0.2,   -0.3,   -0.4,    0.1,   -0.3,   -0.2,   -0.0,   -0.1,   -0.1,    0.1,   -0.1,    0.0,   -0.2,    0.0,   -0.2,  999.0,  999.0,  999.0,  999.0,  999.0,    0.2,  999.0,  999.0,  999.0,  999.0,  999.0,  999.0
2011/11/20 07:40,  999.0,  999.0,    0.7,    0.7,    0.4,  999.0,  999.0,  999.0,  999.0,  999.0,  999.0,   17.9,  999.0,   26.7,  999.0,  999.0,  999.0,  999.0,  999.0,  999.0,  999.0,  999.0,  999.0,  999.0,  999.0,  999.0,   21.0,   19.8,   19.3,   21.2,   18.7,   17.9,   15.9,   15.9,   17.2,   15.4,   14.8,   15.6,   16.5,   18.0,   18.4,   19.6,   19.1,   19.6,   19.5,   20.2,   20.9,   19.9,   21.4,   21.3,   23.0,   21.0,   21.7,  999.0,  999.0,  999.0,  999.0,  999.0,  999.0,    0.6,    0.0,    0.2,    0.2,   -0.3,   -0.3,   -0.1,    0.1,    0.2,    0.2,  999.0,  999.0,  999.0,   -0.2,  999.0,  999.0,  999.0,  999.0,  999.0,  999.0,  999.0
2011/11/20 07:50,  999.0,  999.0,    6.3,    7.6,   11.4,   12.7,    4.3,    7.5,   11.8,   12.2,   14.0,   18.2,   11.5,   22.1,  999.0,  999.0,  999.0,  -34.2,  999.0,  999.0,  999.0,  -28.9,  -32.5,  -34.2,  999.0,  999.0,   18.4,   19.0,   18.8,   18.2,   16.7,   15.2,   15.0,   14.1,   14.3,   14.4,   14.9,   14.3,   14.5,   16.2,   17.1,   18.5,   18.3,   19.0,   19.9,   20.4,   20.4,   20.5,   21.7,   21.8,   22.8,  999.0,  999.0,  999.0,  999.0,  999.0,  999.0,  999.0,  999.0,  999.0,  999.0,  999.0,  999.0,    0.0,   -0.2,    0.0,  999.0,  999.0,  999.0,  999.0,  999.0,  999.0,  999.0,  999.0,  999.0,  999.0,  999.0,  999.0,  999.0,  999.0
2011/11/20 08:00,  999.0,    4.3,    1.8,    2.9,    4.3,    4.7,    5.0,    2.6,    6.9,    4.7,   16.3,   14.0,   15.3,  999.0,  999.0,  999.0,  999.0,  999.0,  999.0,  999.0,  999.0,  999.0,  -29.9,  -35.0,  -34.5,  999.0,  999.0,  999.0,  999.0,   16.3,   15.4,   14.1,   13.3,   13.3,   13.0,   13.4,   13.8,   14.6,   15.6,   16.5,   18.0,   18.7,   19.7,   19.4,   19.9,   21.2,   20.8,  999.0,  999.0,  999.0,  999.0,  999.0,  999.0,  999.0,  999.0,  999.0,  999.0,  999.0,  999.0,  999.0,  999.0,  999.0,  999.0,  999.0,  999.0,  999.0,  999.0,  999.0,  999.0,  999.0,  999.0,  999.0,  999.0,  999.0,  999.0,  999.0,  999.0,  999.0,  999.0,  999.0
2011/11/20 08:10,  999.0,  999.0,  999.0,  999.0,    5.3,  999.0,  999.0,    4.0,    5.9,  999.0,  999.0,  999.0,  999.0,  999.0,  999.0,  999.0,  999.0,  999.0,  999.0,  999.0,  999.0,  999.0,  999.0,  -32.8,  -32.6,  -32.8,  999.0,  999.0,  999.0,  999.0,  999.0,  999.0,  999.0,  999.0,  999.0,   18.2,   23.4,   18.7,   17.8,   16.5,   16.8,   18.5,   20.1,   19.3,   20.2,  999.0,  999.0,  999.0,  999.0,  999.0,  999.0,  999.0,  999.0,   -0.4,    0.1,   -0.1,   -0.1,    0.3,    0.4,   -0.0,   -0.3,   -0.0,   -0.6,   -0.3,   -0.3,  999.0,  999.0,   -0.2,  999.0,  999.0,  999.0,  999.0,  999.0,  999.0,  999.0,  999.0,  999.0,  999.0,  999.0,  999.0
2011/11/20 08:20,  999.0,  999.0,  999.0,  999.0,  999.0,  999.0,  999.0,  999.0,  999.0,  999.0,  999.0,  999.0,    2.5,  999.0,  999.0,  999.0,  999.0,  999.0,  -10.0,   -4.3,   -0.0,  -10.5,   -0.8,   -1.7,   -2.3,   -3.3,   -4.3,   -6.1,   -5.3,  999.0,  999.0,  999.0,  999.0,  999.0,  999.0,   14.6,  999.0,   18.7,   20.1,  999.0,   17.0,  999.0,  999.0,  999.0,  999.0,  999.0,  999.0,  999.0,  999.0,  999.0,  999.0,  999.0,  999.0,  999.0,  999.0,  999.0,   -0.0,   -0.1,   -0.5,   -0.5,  999.0,    0.0,  999.0,  999.0,  999.0,  999.0,  999.0,  999.0,  999.0,  999.0,  999.0,  999.0,  999.0,  999.0,  999.0,  999.0,  999.0,  999.0,  999.0,  999.0
2011/11/20 08:30,  999.0,    0.6,    0.2,    0.5,    0.4,   -0.0,  999.0,  999.0,    4.7,    5.8,    8.1,    7.1,    6.6,    4.3,    6.4,    6.7,    7.6,    4.4,    2.7,   -6.7,   -7.6,  -10.4,  -10.8,  -23.5,  -19.3,  999.0,  999.0,  999.0,  999.0,  999.0,  999.0,  999.0,    9.8,   16.8,   13.6,    9.4,   13.4,   13.3,   14.5,   14.7,   15.0,   16.6,   19.4,   22.1,   24.4,   23.2,  999.0,  999.0,  999.0,  999.0,  999.0,  999.0,  999.0,  999.0,  999.0,  999.0,  999.0,  999.0,  999.0,    0.1,   -0.2,   -0.1,  999.0,   -0.4,  999.0,  999.0,  999.0,  999.0,  999.0,  999.0,  999.0,  999.0,  999.0,  999.0,  999.0,  999.0,  999.0,  999.0,  999.0,  999.0
2011/11/20 08:40,  999.0,    0.7,    0.6,    1.9,    1.1,    1.8,  999.0,  999.0,  999.0,   10.6,   14.1,   13.5,   14.0,   12.7,   11.4,   13.4,   17.7,   21.4,   13.5,   12.4,    2.4,  999.0,  999.0,  999.0,  999.0,  999.0,  999.0,   -9.8,  999.0,  999.0,   -1.6,   15.2,   15.3,   18.6,   17.2,   16.1,   13.6,   18.9,   16.8,   13.5,   16.6,   21.0,   19.7,   20.7,   21.8,  999.0,  999.0,  999.0,  999.0,  999.0,  999.0,  999.0,  999.0,  999.0,  999.0,  999.0,  999.0,   -0.1,    0.1,    0.0,    0.0,    0.1,  999.0,    0.2,   -0.1,  999.0,  999.0,  999.0,  999.0,  999.0,  999.0,  999.0,  999.0,  999.0,  999.0,  999.0,  999.0,  999.0,  999.0,  999.0
2011/11/20 08:50,  999.0,    0.4,  999.0,    0.9,    0.8,    0.8,    2.0,    0.9,    0.5,    0.6,    1.2,    0.8,    0.9,    0.3,  999.0,  999.0,  999.0,  999.0,  999.0,  999.0,  999.0,  999.0,  999.0,  999.0,  999.0,  999.0,   14.1,  999.0,  999.0,   15.9,   19.3,   17.7,   18.0,   18.9,   16.8,   17.6,   15.7,   15.8,   17.0,   18.0,   19.6,   21.9,   22.8,   23.4,  999.0,  999.0,  999.0,  999.0,  999.0,  999.0,  999.0,  999.0,    0.6,    0.5,    0.3,    0.3,    0.3,   -0.1,   -0.1,   -0.0,    0.0,   -0.0,    0.2,    0.0,  999.0,    0.4,  999.0,  999.0,  999.0,  999.0,  999.0,  999.0,  999.0,  999.0,  999.0,  999.0,  999.0,  999.0,  999.0,  999.0
2011/11/20 09:00,  999.0,    0.6,    1.7,    1.5,    0.7,    0.6,    2.3,    0.9,    0.3,    0.3,    7.4,    5.2,   10.5,    6.8,    7.5,   -0.5,   -0.5,  999.0,  999.0,  999.0,  999.0,  999.0,  999.0,  999.0,  999.0,  999.0,   32.0,   31.7,  999.0,  999.0,   19.4,   18.7,   17.3,   18.3,   18.4,   17.7,   16.5,   16.4,   16.5,   17.1,   18.9,   18.8,   22.0,   22.4,  999.0,  999.0,  999.0,  999.0,  999.0,  999.0,  999.0,  999.0,    0.4,   -0.1,   -0.1,   -0.2,   -0.1,    0.2,  999.0,  999.0,   -0.2,    0.2,    0.2,   -0.2,  999.0,    0.2,    0.0,  999.0,  999.0,  999.0,  999.0,  999.0,  999.0,  999.0,  999.0,  999.0,  999.0,  999.0,  999.0,  999.0
2011/11/20 09:10,  999.0,  999.0,    0.5,    0.2,    1.2,   -0.3,  999.0,  999.0,   16.4,   19.3,   23.9,   23.7,   22.8,   26.3,   29.8,   35.8,  999.0,  999.0,  999.0,   17.1,   19.1,   15.7,  999.0,   17.7,  999.0,   31.2,  999.0,   24.2,   25.3,  999.0,   20.4,  999.0,   16.0,   16.7,   16.6,   15.0,   14.2,   15.3,   16.1,   18.1,   21.1,   22.4,   22.8,  999.0,  999.0,  999.0,  999.0,  999.0,  999.0,  999.0,    0.1,    0.1,   -0.4,  999.0,   -0.1,  999.0,   -0.4,   -0.3,   -0.4,  999.0,   -0.2,   -0.3,    0.2,  999.0,    0.2,    0.1,   -0.2,   -0.1,    0.0,  999.0,  999.0,  999.0,  999.0,  999.0,  999.0,  999.0,  999.0,  999.0,  999.0,  999.0
2011/11/20 09:20,  999.0,   -4.1,  999.0,  999.0,  999.0,    0.8,  999.0,  999.0,  999.0,  999.0,  999.0,  999.0,  999.0,  999.0,  999.0,   23.7,   12.9,  999.0,   21.3,  999.0,    6.5,  999.0,    6.5,    0.6,    0.5,  999.0,  999.0,    0.7,   -0.2,   -0.7,    0.4,    3.9,   -1.6,  999.0,  999.0,   -6.3,  999.0,    3.4,    1.4,  999.0,   -2.3,  999.0,  999.0,  999.0,  999.0,    2.2,  999.0,  999.0,    1.1,  999.0,    0.3,  999.0,   -0.1,   -0.1,    0.1,    0.2,    0.3,    0.8,    0.6,   -0.2,    0.1,   -0.2,   -0.0,    0.0,    0.2,    0.1,    0.0,    0.0,   -0.2,  999.0,  999.0,  999.0,  999.0,  999.0,  999.0,  999.0,  999.0,  999.0,  999.0,  999.0
2011/11/20 09:30,  999.0,  999.0,    1.7,    0.0,    0.5,    0.7,  999.0,  999.0,  999.0,    9.1,   12.3,   12.7,   13.4,   13.0,   13.9,   16.5,   15.4,  999.0,  999.0,  999.0,   14.9,   13.2,  999.0,    4.9,    0.3,  999.0,  999.0,    0.6,  999.0,   -1.1,   -2.7,  999.0,  999.0,  999.0,  999.0,  999.0,  999.0,  999.0,  999.0,   -3.4,   -2.4,   -0.3,   -0.2,    0.2,    2.0,    2.3,  999.0,    0.3,   -0.3,  999.0,  999.0,  999.0,   -0.2,    0.0,    0.1,   -0.0,   -0.1,    0.1,    0.1,   -0.2,   -0.1,    0.1,  999.0,   -0.1,  999.0,    0.1,   -0.3,  999.0,  999.0,  999.0,  999.0,  999.0,  999.0,  999.0,  999.0,  999.0,  999.0,  999.0,  999.0,  999.0
2011/11/20 09:40,  999.0,    1.2,    2.2,    1.8,    0.7,    0.7,    1.0,    0.3,   -0.4,   -1.6,   -1.1,   -1.1,   -1.0,   -2.1,   -1.5,   -1.4,   -0.9,   -0.1,   -0.1,   -0.3,    1.4,    1.8,   -0.2,   -0.1,   -0.1,    0.1,    0.3,    0.0,    0.1,   -0.1,   -0.1,   -0.0,   -0.2,   -0.8,    0.2,   -0.1,    0.1,  999.0,   -0.6,   -0.4,   -0.8,   -0.5,    0.5,   -0.3,   -0.6,   -0.5,   -0.1,   -0.5,   -0.2,  999.0,   -0.2,   -0.2,    0.0,    0.2,    0.0,    0.0,   -0.1,    0.5,   -0.0,    0.2,    0.3,   -0.1,   -0.0,    0.0,  999.0,  999.0,  999.0,  999.0,  999.0,    0.2,  999.0,  999.0,  999.0,  999.0,  999.0,  999.0,  999.0,  999.0,  999.0,  999.0
2011/11/20 09:50,  999.0,    0.5,    0.2,   -0.1,    0.3,  999.0,  999.0,  999.0,  999.0,  999.0,  999.0,    6.4,    5.6,    7.7,    6.5,  999.0,  999.0,   -0.1,    4.0,    2.7,    1.7,   -0.7,   -1.0,   -1.0,   -0.1,   -0.3,   -0.5,    0.1,    0.2,    0.4,    0.0,   -0.1,   -0.3,   -0.4,   -0.0,   -0.0,  999.0,    1.2,    1.3,    0.9,    0.2,   -0.1,   -0.1,    0.3,    0.3,   -0.3,    0.0,    0.2,    0.1,  999.0,   -0.1,   -0.0,   -0.0,    0.0,    0.2,    0.3,   -0.1,    0.0,    0.1,    0.2,    0.1,   -0.1,    0.2,    0.2,    0.2,    0.0,   -0.1,   -0.5,   -0.2,    0.1,  999.0,    0.3,    0.1,    0.2,  999.0,  999.0,  999.0,  999.0,  999.0,  999.0
2011/11/20 10:00,  999.0,   -0.3,   -0.2,    0.2,    0.0,  999.0,  999.0,  999.0,  999.0,  999.0,  999.0,  999.0,  999.0,  999.0,  999.0,   12.1,   13.1,  999.0,  999.0,   -0.3,  999.0,   -1.3,    0.9,    1.0,    0.1,   -0.2,   -0.0,   -0.7,   -0.5,   -0.3,   -0.0,   -0.3,   -0.8,   -0.2,   -0.5,   -1.4,   -0.5,  999.0,   -0.3,   -0.5,   -0.4,   -0.4,  999.0,   -0.3,   -0.5,   -0.1,   -0.1,    0.6,    0.4,    0.0,   -0.1,   -0.1,   -0.0,    0.0,    0.0,   -0.1,   -0.1,    0.0,    0.1,    0.0,    0.1,   -0.1,   -0.1,   -0.2,   -0.1,    0.2,   -0.1,   -0.0,    0.2,   -0.2,  999.0,   -0.3,   -0.1,  999.0,  999.0,  999.0,  999.0,  999.0,  999.0,  999.0
2011/11/20 10:10,  999.0,    0.3,   -0.1,   -0.1,    0.2,   -0.1,   -0.1,  999.0,   -0.1,  999.0,  999.0,  999.0,  999.0,  999.0,  999.0,  999.0,  999.0,  999.0,    3.9,    1.9,   -0.0,    2.4,    0.1,   -0.1,   -0.2,   -0.3,   -0.2,   -0.8,   -0.8,   -0.7,   -0.9,   -1.1,   -0.9,   -0.2,   -0.3,   -0.2,   -0.8,   -0.1,   -0.5,   -0.5,   -0.9,   -0.8,   -0.3,   -0.3,   -0.7,   -0.7,   -0.5,    0.1,    0.1,    0.4,    0.1,   -0.0,   -0.1,    0.2,    0.2,   -0.0,   -0.1,   -0.1,   -0.0,   -0.0,   -0.0,   -0.1,    0.0,   -0.1,  999.0,    0.1,    0.1,    0.0,   -0.1,    0.1,   -0.1,   -0.0,  999.0,  999.0,  999.0,  999.0,  999.0,  999.0,  999.0,  999.0
2011/11/20 10:20,  999.0,  999.0,    0.1,    0.2,    0.0,   -0.0,   -0.4,  999.0,    0.3,    0.4,    0.8,  999.0,    0.7,    0.7,    0.4,    0.5,    0.2,  999.0,    0.0,    0.3,    0.3,    0.5,    0.4,    0.1,    0.1,   -0.2,   -0.5,    0.1,    0.0,   -0.3,   -0.1,   -0.1,   -0.3,   -0.3,   -0.3,   -0.1,   -0.2,   -0.1,   -0.5,   -0.7,   -0.8,   -0.6,   -0.2,   -0.2,    0.0,    0.0,   -0.1,   -0.1,   -0.0,   -0.1,   -0.1,    0.2,    0.1,    0.0,   -0.1,    0.0,    0.0,   -0.0,    0.0,   -0.0,    0.1,    0.1,   -0.1,    0.0,   -0.1,    0.1,    0.1,   -0.0,   -0.0,   -0.0,    0.2,    0.5,    0.1,  999.0,  999.0,  999.0,  999.0,  999.0,  999.0,  999.0
2011/11/20 10:30,  999.0,  999.0,    0.1,    0.1,    0.1,   -0.2,   -0.3,   -0.1,    0.1,    0.5,    0.7,    0.6,    0.8,    0.6,    1.0,    0.9,    0.8,    0.3,    0.1,    0.2,    0.4,    0.3,    0.3,    0.0,    0.2,    0.2,    0.8,    1.0,    0.3,    0.1,    0.2,    0.2,    0.0,    0.1,   -0.1,   -0.2,   -0.1,   -0.8,   -1.4,   -0.6,   -0.5,   -0.7,   -0.1,   -0.1,   -0.1,    0.0,    0.1,    0.0,   -0.1,    0.1,    0.0,   -0.1,   -0.1,   -0.0,   -0.1,    0.0,    0.1,    0.1,    0.1,   -0.0,   -0.0,   -0.1,   -0.0,   -0.0,   -0.0,   -0.0,   -0.1,   -0.1,   -0.1,   -0.0,   -0.0,   -0.0,   -0.1,  999.0,  999.0,  999.0,  999.0,  999.0,  999.0,  999.0
2011/11/20 10:40,  999.0,  999.0,    0.0,   -0.2,   -0.1,    0.0,    0.2,   -0.2,   -0.1,    0.1,    0.2,    0.2,    0.5,    0.2,    0.4,    0.5,    0.3,   -0.0,   -0.0,    0.1,   -0.0,    0.0,   -0.0,    0.2,    0.0,    0.1,    0.4,    0.1,   -0.0,   -0.1,    0.0,    0.3,    0.2,   -0.1,   -0.1,   -0.5,   -0.9,   -0.4,   -0.7,   -0.1,   -0.2,   -0.1,   -0.2,   -0.2,   -0.1,   -0.0,    0.0,    0.1,   -0.2,   -0.1,   -0.0,    0.1,   -0.1,    0.0,   -0.2,    0.0,    0.1,   -0.0,    0.0,   -0.0,   -0.1,    0.0,   -0.0,    0.0,    0.0,   -0.0,   -0.0,   -0.0,    0.1,   -0.2,    0.0,    0.3,   -0.1,  999.0,  999.0,  999.0,  999.0,  999.0,  999.0,  999.0
2011/11/20 10:50,  999.0,    0.4,    0.0,   -0.6,   -0.1,   -0.1,   -0.6,   -0.1,    0.2,    0.5,    0.9,    0.8,    1.3,    1.5,    1.5,    1.5,    1.1,    0.4,    0.2,    0.2,    0.2,    0.2,    0.0,   -0.0,   -0.1,   -0.1,   -0.1,   -0.0,   -0.0,   -0.0,   -0.1,    0.1,    0.1,   -0.2,   -0.0,    0.1,   -0.2,   -0.3,   -0.3,   -0.1,    0.0,    0.4,   -0.5,   -0.1,    0.0,   -0.0,    0.1,    0.1,   -0.1,   -0.1,    0.1,    0.1,   -0.0,    0.1,   -0.2,   -0.0,    0.1,    0.1,    0.1,    0.1,    0.1,    0.1,   -0.0,   -0.0,   -0.0,    0.0,   -0.0,    0.0,    0.0,   -0.1,    0.1,    0.2,    0.1,  999.0,  999.0,  999.0,  999.0,  999.0,  999.0,  999.0
2011/11/20 11:00,  999.0,    0.2,   -0.1,   -0.1,   -0.3,   -0.1,    0.3,   -0.1,   -0.0,    0.4,    1.0,    0.6,    0.6,    0.7,    0.4,    0.4,    0.3,    0.2,   -0.1,    0.1,   -0.1,   -0.0,   -0.1,    0.3,    0.4,    0.0,    0.1,   -0.1,   -0.2,    0.1,   -0.0,   -0.0,    0.0,    0.2,    0.1,    0.1,    0.1,    0.2,   -0.0,    0.0,   -0.1,   -0.0,   -0.1,    0.1,    0.1,    0.0,   -0.1,   -0.1,   -0.0,   -0.0,    0.0,   -0.1,   -0.0,    0.1,   -0.0,    0.0,   -0.0,   -0.0,   -0.1,    0.0,   -0.0,   -0.1,   -0.1,    0.0,    0.0,   -0.0,   -0.0,    0.0,   -0.0,   -0.0,    0.2,   -0.1,    0.1,  999.0,  999.0,  999.0,  999.0,  999.0,  999.0,  999.0
2011/11/20 11:10,  999.0,    0.2,   -0.2,    0.1,    0.1,    0.1,    0.2,    0.6,    0.5,    0.3,    0.4,    1.0,    0.7,    0.4,    0.2,    0.2,    0.0,    0.2,    0.1,    0.2,    0.1,    0.2,    0.1,    0.5,    0.0,    0.1,    0.5,    0.7,    0.7,   -0.0,   -0.1,   -0.0,    0.2,    0.1,    0.1,   -0.1,    0.1,   -0.2,   -0.0,   -0.0,    0.1,    0.1,    0.1,    0.2,    0.1,    0.0,    0.1,   -0.1,    0.0,   -0.0,    0.0,    0.0,   -0.0,   -0.0,   -0.0,   -0.0,    0.0,   -0.0,    0.0,    0.0,   -0.0,    0.0,    0.1,   -0.0,   -0.0,   -0.1,   -0.0,   -0.1,    0.0,   -0.1,    0.0,   -0.0,   -0.0,  999.0,  999.0,  999.0,  999.0,  999.0,  999.0,  999.0
2011/11/20 11:20,  999.0,  999.0,    0.3,    0.1,    0.1,    0.1,    0.2,    0.7,    0.3,    0.3,    0.2,   -0.1,   -0.1,   -0.2,   -0.2,   -0.1,   -0.0,    0.0,   -0.0,    0.0,    0.1,    0.0,    0.1,    0.2,    0.1,   -0.1,   -0.0,    0.3,   -0.2,   -0.0,   -0.0,    0.0,   -0.1,   -0.1,    0.0,   -0.5,   -0.9,   -0.5,    0.2,    0.1,    0.1,    0.1,    0.0,   -0.1,    0.0,    0.0,   -0.1,   -0.0,   -0.1,    0.0,    0.1,   -0.1,    0.0,    0.1,    0.1,    0.1,   -0.0,    0.0,    0.1,    0.0,   -0.0,   -0.0,   -0.0,   -0.0,   -0.0,    0.0,    0.0,    0.0,   -0.0,    0.0,    0.2,    0.0,    0.0,   -0.0,  999.0,  999.0,  999.0,  999.0,  999.0,  999.0
2011/11/20 11:30,  999.0,   -0.3,   -0.2,   -0.1,   -0.3,    0.0,    0.2,    0.4,    0.1,    0.1,   -0.6,   -0.1,   -0.2,   -0.2,   -0.4,   -0.4,   -0.1,   -0.1,    0.1,    0.0,    0.2,    0.1,    0.1,    0.1,   -0.1,   -0.2,   -0.1,    0.1,    0.0,    0.0,    0.0,    0.1,   -0.0,   -0.0,   -0.0,   -0.9,   -1.7,   -0.2,    0.0,   -0.0,    0.0,    0.1,    0.0,    0.0,    0.0,    0.1,    0.0,   -0.0,   -0.0,    0.0,    0.0,    0.0,    0.0,   -0.1,   -0.0,   -0.0,    0.0,    0.0,    0.0,   -0.0,   -0.0,    0.0,   -0.0,   -0.0,   -0.0,    0.0,    0.0,    0.0,   -0.1,   -0.1,   -0.1,   -0.0,    0.1,   -0.2,   -0.1,  999.0,  999.0,  999.0,  999.0,  999.0
2011/11/20 11:40,  999.0,   -0.2,   -0.2,    0.1,    0.3,    0.2,    0.3,    0.1,   -0.0,    0.1,    0.1,    0.0,   -0.1,    0.2,   -0.1,   -0.1,    0.1,   -0.1,    0.1,    0.0,   -0.0,    0.0,    0.1,    0.0,    0.1,   -0.1,   -0.0,   -0.1,   -0.0,   -0.0,    0.0,    0.0,    0.1,    0.0,   -0.0,   -0.7,   -0.4,    0.2,    0.1,    0.0,    0.0,   -0.1,    0.0,    0.0,    0.0,    0.0,    0.0,    0.0,    0.1,   -0.0,   -0.1,   -0.1,   -0.0,   -0.1,   -0.0,   -0.0,   -0.0,    0.0,    0.1,    0.0,    0.0,   -0.0,    0.0,    0.0,    0.0,    0.0,   -0.1,    0.0,    0.1,    0.0,   -0.0,    0.1,    0.5,   -0.0,  999.0,  999.0,  999.0,  999.0,  999.0,  999.0
2011/11/20 11:50,  999.0,    0.1,    0.0,    0.0,    0.1,    0.2,    0.2,    0.4,    0.2,    0.0,   -0.1,    0.1,    0.1,    0.1,    0.2,    0.1,   -0.1,    0.1,   -0.1,   -0.1,   -0.0,    0.1,    0.1,    0.1,    0.2,   -0.1,   -0.1,    0.2,    0.0,    0.0,   -0.1,    0.0,    0.0,    0.0,   -0.1,    0.0,   -0.2,    0.1,    0.2,    0.1,   -0.1,    0.0,    0.0,    0.0,    0.0,    0.0,   -0.1,   -0.0,   -0.0,    0.0,    0.0,    0.1,   -0.0,    0.0,   -0.0,   -0.1,   -0.0,    0.1,    0.1,    0.0,    0.0,   -0.1,   -0.1,    0.0,    0.0,   -0.0,   -0.1,    0.0,   -0.0,    0.1,    0.0,    0.0,   -0.2,    0.2,    0.1,  999.0,  999.0,  999.0,  999.0,  999.0
2011/11/20 12:00,  999.0,   -0.0,    0.1,    0.1,    0.3,    0.4,    0.8,    1.7,    1.5,    0.5,    0.2,    0.1,   -0.0,    0.0,    0.2,    0.4,    0.1,   -0.0,   -0.1,    0.1,    0.1,    0.0,   -0.1,   -0.0,    0.1,   -0.1,    0.0,    0.2,    0.1,    0.1,   -0.2,   -0.1,    0.1,   -0.0,    0.1,    0.2,    0.0,    0.3,    0.3,    0.1,    0.1,    0.0,   -0.0,    0.1,   -0.0,   -0.1,  999.0,    0.0,   -0.0,   -0.0,    0.1,   -0.0,    0.1,    0.2,    0.1,   -0.1,   -0.0,   -0.1,   -0.1,   -0.1,   -0.0,    0.0,    0.0,    0.1,    0.1,    0.0,    0.0,    0.1,    0.1,    0.1,    0.2,    0.1,   -0.1,   -0.1,    0.1,  999.0,  999.0,  999.0,  999.0,  999.0
2011/11/20 12:10,  999.0,  999.0,   -0.0,    0.1,    0.1,   -0.1,   -0.1,   -0.1,    0.5,    0.4,    0.3,    0.1,   -0.0,    0.0,    0.1,    0.2,    0.2,    0.0,    0.1,    0.1,    0.1,    0.1,    0.1,   -0.1,   -0.1,   -0.1,   -0.0,   -0.1,    0.1,    0.1,   -0.1,    0.1,    0.0,    0.0,   -0.0,    0.1,    0.0,    0.0,   -0.0,    0.0,   -0.1,    0.1,    0.0,    0.1,    0.1,    0.1,    0.2,    0.0,    0.1,   -0.0,   -0.1,   -0.0,    0.0,   -0.0,    0.1,    0.1,    0.0,    0.1,    0.1,   -0.0,    0.1,    0.0,    0.0,    0.0,    0.0,    0.0,    0.1,    0.1,    0.1,    0.1,    0.2,   -0.1,   -0.0,   -0.4,  999.0,  999.0,  999.0,  999.0,  999.0,  999.0
2011/11/20 12:20,  999.0,  999.0,   -0.1,    0.3,    0.0,    0.0,   -0.2,   -0.0,    0.1,    0.1,    0.0,    0.1,   -0.0,    0.2,    0.1,    0.1,    0.0,    0.1,    0.0,    0.3,   -0.0,   -0.1,    0.1,   -0.1,   -0.0,    0.1,    0.2,    0.0,   -0.1,   -0.1,  999.0,   -0.2,    0.0,   -0.3,   -0.2,   -0.1,    0.0,    0.0,   -0.1,    0.1,    0.0,   -0.0,   -0.0,   -0.1,   -0.0,   -0.0,   -0.1,   -0.0,   -0.1,   -0.0,    0.0,   -0.1,  999.0,   -0.1,   -0.1,   -0.1,   -0.0,   -0.0,    0.0,    0.1,    0.1,    0.0,   -0.0,    0.0,    0.0,   -0.0,   -0.0,   -0.0,    0.0,   -0.0,   -0.0,   -0.1,    0.2,  999.0,  999.0,  999.0,  999.0,  999.0,  999.0,  999.0
2011/11/20 12:30,  999.0,   -0.1,   -0.0,    0.0,   -0.0,   -0.1,    0.3,   -0.0,   -0.0,  999.0,   -0.0,    0.1,   -0.0,    0.0,  999.0,    0.1,    0.1,    0.0,   -0.1,   -0.1,    0.0,    0.2,    0.0,   -0.0,   -0.1,    0.1,   -0.3,    0.0,    0.0,    0.2,    0.1,   -0.1,   -0.2,   -0.2,   -0.0,   -0.0,   -0.0,   -0.1,   -0.1,   -0.0,   -0.0,   -0.1,    0.0,    0.0,   -0.0,   -0.0,   -0.1,   -0.2,   -0.0,   -0.0,    0.1,   -0.1,   -0.0,    0.0,   -0.1,    0.1,   -0.1,    0.1,   -0.1,    0.0,    0.0,   -0.0,    0.0,    0.0,   -0.1,   -0.0,   -0.0,   -0.0,    0.0,   -0.3,  999.0,    0.1,   -0.1,    0.2,  999.0,  999.0,  999.0,  999.0,  999.0,  999.0
2011/11/20 12:40,  999.0,    0.0,    0.1,    0.2,    0.1,    0.1,    0.2,    0.1,    0.0,   -0.1,    0.0,    0.2,    0.0,    0.1,   -0.1,   -0.1,   -0.1,   -0.0,   -0.0,    0.0,    0.1,   -0.3,   -0.5,   -0.4,    0.1,    0.0,   -0.3,    0.1,   -0.6,    0.1,   -0.0,   -0.1,   -0.1,    0.0,   -0.1,    0.0,    0.0,   -0.0,    0.1,    0.0,    0.1,    0.1,    0.0,    0.2,    0.2,   -0.1,   -0.1,    0.1,   -0.0,    0.0,   -0.0,   -0.0,   -0.0,    0.0,   -0.1,   -0.1,   -0.0,   -0.0,    0.0,    0.1,   -0.0,    0.1,    0.1,    0.0,   -0.0,   -0.0,   -0.1,    0.1,    0.0,   -0.0,    0.2,    0.0,   -0.2,  999.0,  999.0,  999.0,  999.0,  999.0,  999.0,  999.0
2011/11/20 12:50,  999.0,  999.0,   -0.1,   -0.0,   -0.2,   -0.0,    0.0,    0.0,    0.1,    0.2,    0.3,    0.2,    0.1,    0.2,    0.1,    0.0,   -0.0,    0.1,    0.3,   -0.0,   -0.0,   -0.3,   -0.7,   -0.4,   -1.0,   -1.0,   -0.9,   -0.8,   -1.1,   -0.7,   -0.1,   -0.4,   -0.7,    0.1,   -0.2,    0.0,   -0.0,   -0.0,   -0.0,   -0.0,    0.1,    0.1,   -0.0,    0.0,    0.1,   -0.1,   -0.1,   -0.1,    0.0,    0.0,   -0.0,   -0.1,   -0.1,   -0.0,   -0.1,    0.0,   -0.1,    0.0,    0.0,   -0.1,   -0.0,    0.0,    0.0,   -0.0,   -0.1,   -0.0,   -0.0,    0.1,   -0.0,   -0.1,   -0.1,    0.2,    0.1,  999.0,  999.0,  999.0,  999.0,  999.0,  999.0,  999.0
2011/11/20 13:00,  999.0,  999.0,    0.0,   -0.0,    0.0,    0.1,    0.1,    0.2,    0.0,    0.2,    0.1,    0.0,   -0.0,    0.0,    0.0,    0.0,   -0.1,   -0.0,    0.1,    0.0,   -0.1,    0.0,    0.0,   -0.2,    0.0,   -0.6,   -0.2,   -0.1,   -0.2,    0.0,    0.2,   -0.0,   -0.2,   -0.2,   -0.1,    0.2,    0.1,    0.2,    0.1,   -0.0,   -0.1,    0.0,   -0.1,    0.0,   -0.0,    0.0,   -0.0,   -0.0,   -0.1,    0.0,   -0.0,    0.1,   -0.1,   -0.1,   -0.0,   -0.0,    0.0,   -0.1,   -0.0,    0.1,    0.1,   -0.0,    0.0,    0.0,   -0.1,   -0.0,    0.0,   -0.0,   -0.0,   -0.2,  999.0,   -0.0,    0.1,  999.0,  999.0,  999.0,  999.0,  999.0,  999.0,  999.0
2011/11/20 13:10,  999.0,  999.0,   -0.1,    0.1,   -0.1,    0.2,    0.2,    0.2,    0.1,    0.1,    0.0,    0.1,    0.2,    0.1,    0.2,    0.1,    0.0,   -0.2,   -0.0,   -0.1,    0.1,    0.1,    0.1,   -0.3,   -0.0,   -0.1,   -0.0,    0.0,    0.1,   -0.0,    0.0,    0.1,    0.0,   -0.0,    0.1,    0.0,    0.1,    0.1,    0.0,    0.0,   -0.0,    0.0,    0.0,    0.1,    0.0,   -0.0,   -0.0,   -0.0,   -0.0,    0.1,    0.0,   -0.1,    0.1,   -0.0,   -0.1,   -0.1,    0.0,   -0.0,   -0.0,   -0.0,   -0.0,    0.0,    0.0,    0.1,   -0.0,   -0.0,    0.0,    0.0,   -0.0,   -0.1,    0.3,    0.0,    0.3,  999.0,  999.0,  999.0,  999.0,  999.0,  999.0,  999.0
2011/11/20 13:20,  999.0,  999.0,   -0.1,    0.0,   -0.0,    0.0,    0.0,   -0.1,    0.0,   -0.0,   -0.0,   -0.0,   -0.0,   -0.0,    0.0,    0.0,    0.1,    0.1,    0.2,    0.0,   -0.1,   -0.1,   -0.0,   -0.0,   -0.1,    0.1,    0.0,   -0.0,   -0.0,   -0.0,   -0.1,   -0.0,   -0.0,    0.0,    0.1,   -0.0,    0.0,   -0.0,   -0.1,    0.0,    0.0,    0.1,    0.0,   -0.0,    0.0,   -0.0,   -0.1,   -0.1,   -0.0,   -0.1,   -0.1,    0.1,    0.0,   -0.0,    0.0,   -0.1,   -0.0,    0.1,    0.0,    0.0,    0.1,    0.0,   -0.0,   -0.0,    0.0,   -0.0,   -0.0,   -0.0,   -0.0,   -0.0,    0.1,    0.1,    0.0,  999.0,  999.0,  999.0,  999.0,  999.0,  999.0,  999.0
2011/11/20 13:30,  999.0,  999.0,   -0.0,   -0.1,    0.0,    0.1,    0.0,   -0.1,   -0.1,   -0.0,   -0.0,    0.0,   -0.0,    0.0,   -0.1,   -0.0,    0.0,    0.1,    0.1,   -0.0,    0.1,    0.1,    0.2,   -0.0,    0.0,    0.0,   -0.0,    0.0,    0.0,    0.1,    0.1,    0.1,    0.1,    0.1,   -0.0,    0.1,   -0.0,   -0.0,   -0.1,   -0.1,    0.0,   -0.0,   -0.0,   -0.0,   -0.0,   -0.0,   -0.1,   -0.1,    0.0,    0.0,    0.0,    0.1,   -0.0,    0.1,    0.0,    0.0,    0.1,   -0.0,   -0.0,    0.0,   -0.0,   -0.1,    0.1,    0.0,    0.1,   -0.0,    0.0,    0.0,    0.0,    0.2,   -0.1,    0.1,   -0.0,   -0.1,  999.0,  999.0,  999.0,  999.0,  999.0,  999.0
2011/11/20 13:40,  999.0,  999.0,   -0.1,   -0.1,    0.0,    0.1,    0.2,    0.2,   -0.0,   -0.0,    0.0,    0.1,   -0.0,   -0.0,   -0.1,   -0.1,   -0.0,    0.0,   -0.0,   -0.1,   -0.0,   -0.0,   -0.0,    0.0,    0.0,   -0.0,   -0.1,   -0.1,   -0.0,    0.0,   -0.1,   -0.0,    0.0,    0.0,    0.1,    0.1,    0.0,   -0.1,   -0.1,   -0.0,   -0.1,   -0.1,   -0.1,   -0.0,   -0.1,    0.0,   -0.0,    0.0,    0.1,   -0.0,   -0.0,   -0.1,   -0.1,   -0.0,    0.1,   -0.0,   -0.0,   -0.1,    0.0,    0.1,   -0.1,    0.0,    0.0,   -0.0,    0.0,   -0.1,   -0.1,   -0.0,    0.1,    0.1,   -0.0,    0.0,    0.1,    0.3,  999.0,  999.0,  999.0,  999.0,  999.0,  999.0
2011/11/20 13:50,  999.0,  999.0,    0.1,    0.1,    0.1,   -0.0,   -0.0,   -0.1,   -0.1,   -0.1,   -0.0,    0.1,   -0.1,   -0.1,   -0.0,   -0.1,    0.1,    0.0,   -0.0,    0.0,   -0.1,   -0.1,   -0.2,   -0.0,   -0.0,    0.0,    0.1,    0.0,    0.0,    0.0,    0.1,    0.0,    0.0,   -0.0,   -0.0,    0.1,   -0.0,   -0.0,   -0.0,    0.0,    0.0,   -0.1,   -0.0,   -0.1,   -0.1,   -0.0,   -0.0,   -0.0,   -0.0,   -0.0,   -0.0,    0.0,    0.1,    0.0,    0.0,    0.0,    0.0,   -0.1,    0.0,    0.0,    0.1,    0.1,    0.1,   -0.0,    0.0,    0.0,    0.1,    0.1,   -0.1,   -0.2,   -0.1,   -0.0,    0.3,    0.4,  999.0,  999.0,  999.0,  999.0,  999.0,  999.0
2011/11/20 14:00,  999.0,  999.0,    0.0,    0.1,    0.0,   -0.0,    0.0,   -0.0,    0.0,    0.1,   -0.0,    0.1,    0.2,    0.0,   -0.0,    0.1,    0.1,    0.1,   -0.1,    0.0,   -0.1,   -0.3,   -0.7,   -0.9,   -0.4,   -0.0,   -0.1,   -0.1,   -0.2,   -0.3,   -0.1,   -0.1,    0.0,    0.0,   -0.0,   -0.0,    0.0,    0.1,    0.0,    0.1,    0.0,    0.1,    0.0,   -0.1,   -0.1,    0.0,    0.0,    0.0,    0.0,   -0.1,   -0.1,   -0.1,   -0.0,   -0.2,   -0.0,    0.1,   -0.0,    0.0,   -0.1,   -0.1,    0.0,    0.0,    0.1,    0.1,    0.1,    0.0,   -0.0,    0.0,    0.0,    0.2,   -0.3,    0.2,   -0.1,   -0.1,    0.3,  999.0,  999.0,  999.0,  999.0,  999.0
2011/11/20 14:10,  999.0,  999.0,    0.1,    0.0,    0.0,    0.0,   -0.1,    0.0,    0.0,   -0.1,    0.0,    0.0,   -0.0,    0.0,   -0.0,    0.0,    0.0,   -0.0,    0.0,    0.1,   -0.2,   -0.1,   -0.1,   -0.1,   -0.3,   -0.2,   -0.0,   -0.0,   -0.2,   -0.2,    0.1,    0.1,   -0.0,    0.2,    0.0,    0.0,   -0.1,    0.0,   -0.0,   -0.0,    0.0,    0.0,    0.1,    0.1,    0.1,    0.1,    0.2,   -0.0,   -0.0,    0.0,   -0.1,   -0.0,   -0.0,    0.1,    0.1,    0.1,   -0.1,    0.1,   -0.0,   -0.0,    0.0,    0.1,   -0.0,   -0.1,    0.0,   -0.0,    0.1,   -0.1,    0.0,   -0.1,   -0.0,   -0.1,   -0.1,    0.0,   -0.1,    0.0,    0.1,  999.0,  999.0,  999.0
2011/11/20 14:20,  999.0,  999.0,    0.1,    0.1,    0.1,    0.0,    0.1,   -0.1,   -0.0,    0.0,   -0.0,   -0.0,   -0.1,    0.0,    0.0,    0.0,   -0.0,    0.1,    0.1,    0.1,   -0.1,   -0.1,    0.0,    0.0,    0.0,    0.1,    0.1,    0.0,    0.0,    0.0,   -0.0,    0.1,    0.1,    0.3,    0.7,    0.4,    1.3,    1.3,    0.7,    0.3,   -0.0,   -0.0,    0.1,    0.0,    0.0,   -0.1,    0.1,    0.1,    0.0,    0.1,   -0.1,   -0.0,    0.0,    0.1,   -0.0,   -0.0,   -0.0,   -0.1,   -0.0,    0.1,    0.0,    0.0,    0.1,   -0.1,   -0.0,    0.1,    0.1,   -0.1,   -0.0,    0.2,    0.1,   -0.2,    0.0,   -0.0,    0.2,    0.1,    0.1,  999.0,  999.0,   -0.3
2011/11/20 14:30,  999.0,  999.0,    0.1,   -0.1,   -0.0,    0.0,    0.0,    0.0,    0.0,   -0.0,    0.0,    0.1,    0.1,    0.1,    0.0,   -0.0,   -0.0,    0.0,    0.0,   -0.0,    0.0,    0.0,    0.0,    0.0,    0.0,    0.0,    0.0,    0.1,    0.0,    0.0,    0.0,   -0.0,    0.1,    0.3,    1.7,    2.5,    1.5,    1.0,    0.5,    0.1,   -0.0,   -0.1,   -0.1,    0.0,   -0.0,   -0.1,   -0.1,   -0.0,   -0.0,   -0.0,    0.0,    0.1,    0.0,    0.0,    0.1,   -0.0,    0.1,    0.0,   -0.1,   -0.0,    0.0,    0.2,    0.1,  999.0,    0.2,    0.0,    0.0,    0.1,    0.1,   -0.1,   -0.2,    0.0,   -0.1,   -0.0,    0.1,  999.0,  999.0,  999.0,  999.0,   -0.1
2011/11/20 14:40,  999.0,  999.0,    0.1,   -0.0,   -0.0,    0.1,   -0.0,   -0.0,   -0.1,   -0.0,   -0.0,   -0.1,   -0.0,   -0.0,   -0.1,   -0.1,   -0.0,    0.0,    0.0,    0.1,   -0.1,    0.0,    0.0,   -0.0,    0.0,    0.0,    0.0,   -0.0,   -0.0,    0.0,   -0.0,   -0.0,    0.1,    0.1,   -0.4,   -0.5,   -0.7,    0.1,   -0.2,   -0.1,   -0.0,   -0.0,    0.0,   -0.0,    0.0,    0.0,    0.0,    0.0,    0.0,    0.1,   -0.0,   -0.0,   -0.1,   -0.1,   -0.0,    0.1,   -0.1,    0.1,   -0.0,   -0.1,   -0.1,    0.0,    0.2,  999.0,    0.1,    0.1,    0.0,   -0.1,   -0.1,   -0.2,   -0.2,   -0.3,   -0.1,    0.0,    0.0,    0.1,  999.0,  999.0,  999.0,  999.0
2011/11/20 14:50,  999.0,  999.0,    0.1,    0.1,    0.0,   -0.1,   -0.1,   -0.1,   -0.0,    0.0,   -0.0,    0.0,    0.0,    0.0,   -0.0,   -0.0,   -0.0,   -0.0,    0.0,   -0.1,   -0.0,   -0.1,   -0.1,   -0.0,   -0.1,   -0.0,   -0.1,   -0.0,   -0.0,   -0.0,    0.0,    0.0,    0.0,    0.1,   -0.1,   -0.1,   -0.1,   -0.0,   -0.0,    0.0,   -0.0,   -0.0,    0.0,    0.0,    0.1,    0.1,    0.0,    0.0,    0.0,   -0.0,   -0.0,   -0.0,    0.1,   -0.0,    0.1,   -0.1,   -0.0,   -0.0,   -0.1,    0.0,    0.0,    0.0,   -0.1,    0.1,   -0.0,   -0.1,    0.0,   -0.0,    0.1,    0.1,   -0.0,    0.0,    0.0,    0.2,   -0.1,    0.3,   -0.0,  999.0,  999.0,  999.0
2011/11/20 15:00,  999.0,  999.0,    0.0,    0.0,    0.0,   -0.0,   -0.0,    0.0,    0.0,    0.0,    0.0,    0.0,    0.0,    0.0,    0.0,    0.1,    0.0,    0.0,    0.0,   -0.1,   -0.2,   -0.1,   -0.1,    0.0,   -0.0,   -0.0,   -0.0,   -0.0,    0.0,    0.1,   -0.0,   -0.1,   -0.0,   -0.1,   -0.0,    0.0,   -0.0,   -0.0,    0.1,   -0.0,   -0.1,   -0.1,    0.0,    0.0,    0.0,    0.0,   -0.1,   -0.0,   -0.0,   -0.0,   -0.0,   -0.0,   -0.0,    0.1,   -0.1,   -0.1,   -0.2,   -0.1,   -0.1,   -0.1,   -0.1,    0.0,    0.0,  999.0,  999.0,   -0.0,    0.1,   -0.0,    0.1,    0.2,   -0.0,   -0.1,    0.1,    0.0,    0.0,  999.0,  999.0,  999.0,  999.0,  999.0
2011/11/20 15:10,  999.0,  999.0,    0.0,   -0.0,    0.0,    0.0,   -0.0,   -0.0,   -0.0,   -0.1,    0.0,    0.0,   -0.0,   -0.1,   -0.0,   -0.0,    0.1,   -0.0,   -0.0,   -0.1,   -0.1,   -0.1,   -0.0,    0.0,   -0.0,    0.0,    0.1,   -0.0,    0.1,    0.0,    0.0,   -0.0,    0.1,    0.1,    0.0,   -0.1,   -0.1,   -0.1,   -0.4,   -0.3,   -0.2,   -0.2,    0.0,   -0.1,   -0.1,   -0.0,    0.0,    0.0,   -0.0,   -0.1,   -0.0,    0.1,    0.1,    0.1,   -0.0,    0.1,    0.0,    0.1,   -0.1,    0.1,   -0.0,    0.0,   -0.0,  999.0,    0.1,   -0.0,   -0.1,   -0.0,   -0.0,   -0.1,   -0.0,   -0.0,    0.0,    0.1,    0.0,  999.0,  999.0,  999.0,  999.0,  999.0
2011/11/20 15:20,  999.0,  999.0,    0.1,    0.1,   -0.0,   -0.0,   -0.0,    0.1,    0.0,    0.0,    0.0,   -0.1,   -0.0,   -0.0,   -0.0,    0.1,    0.1,    0.1,   -0.1,   -0.0,   -0.0,    0.0,   -0.0,   -0.1,    0.0,   -0.0,    0.2,    0.2,    0.0,    0.1,   -0.0,    0.1,    0.2,    0.2,   -0.2,   -0.8,   -0.8,   -1.0,   -1.0,   -0.4,   -0.3,   -0.2,    0.0,   -0.0,    0.0,   -0.1,   -0.1,    0.1,    0.0,   -0.0,    0.1,   -0.0,   -0.1,    0.1,    0.1,    0.2,   -0.1,   -0.0,    0.0,    0.0,   -0.0,    0.1,    0.1,   -0.2,   -0.1,    0.1,    0.1,    0.2,   -0.0,   -0.0,    0.2,   -0.0,   -0.1,   -0.0,    0.1,  999.0,  999.0,  999.0,  999.0,  999.0
2011/11/20 15:30,  999.0,  999.0,    0.0,    0.0,   -0.0,    0.0,    0.1,    0.0,    0.2,    0.4,    0.2,    0.1,    0.1,   -0.0,    0.1,    0.0,   -0.1,    0.0,    0.1,   -0.1,    0.0,    0.4,    0.5,    0.2,    0.3,    0.5,    0.9,    1.0,    0.4,    0.4,    0.1,    0.2,    0.2,    0.3,    0.5,    0.2,   -0.0,    0.0,    0.0,    0.1,   -0.1,   -0.0,   -0.1,    0.1,   -0.1,    0.1,  999.0,    0.0,    0.1,    0.0,    0.1,    0.1,    0.0,   -0.1,   -0.0,   -0.0,   -0.3,   -0.3,    0.0,    0.1,    0.2,   -0.1,    0.0,    0.2,   -0.0,    0.0,    0.1,    0.0,   -0.1,   -0.0,    0.0,    0.1,    0.2,   -0.0,    0.2,  999.0,  999.0,  999.0,  999.0,  999.0
2011/11/20 15:40,  999.0,   -0.1,    0.0,    0.4,    0.2,    0.1,   -0.1,   -0.1,    0.0,    0.2,    0.2,    0.5,    0.4,    0.5,    0.4,    0.3,    0.1,    0.4,    0.3,    0.1,    0.2,    0.3,    0.4,    0.5,    0.7,    0.4,    0.6,    0.2,    0.6,    0.3,    0.1,    0.2,    0.1,    0.0,    0.2,    0.1,    0.2,    0.3,    0.2,    0.1,    0.3,    0.2,    0.2,    0.3,    0.2,    0.3,   -0.0,   -0.1,   -0.0,   -0.0,   -0.0,   -0.1,    0.1,   -0.1,   -0.0,    0.1,    0.1,   -0.2,    0.1,   -0.0,    0.2,    0.2,    0.2,   -0.1,    0.0,    0.0,   -0.1,   -0.0,   -0.2,   -0.1,    0.3,   -0.1,   -0.2,   -0.1,    0.0,  999.0,  999.0,  999.0,  999.0,  999.0
2011/11/20 15:50,  999.0,  999.0,   -0.0,    0.0,    0.1,   -0.0,    0.0,   -0.1,   -0.0,    0.0,    0.2,    0.1,    0.1,    0.3,    0.2,    0.1,    0.0,   -0.2,    0.1,    0.0,    0.0,    0.1,    0.1,    0.1,    0.3,    0.6,    0.3,    0.0,   -0.0,   -0.1,    0.1,   -0.1,    0.1,    0.1,   -0.0,   -0.4,   -0.0,   -0.0,   -0.1,   -0.2,   -0.1,   -0.1,    0.1,    0.0,    0.0,    0.1,   -0.0,    0.1,    0.0,   -0.0,   -0.1,   -0.2,   -0.1,    0.0,    0.1,   -0.0,   -0.0,    0.1,    0.1,    0.0,   -0.1,   -0.0,   -0.0,   -0.1,    0.1,   -0.0,   -0.0,   -0.1,   -0.1,   -0.1,    0.0,   -0.0,   -0.0,   -0.1,    0.0,  999.0,  999.0,  999.0,  999.0,  999.0
2011/11/20 16:00,  999.0,  999.0,   -0.1,    0.1,    0.1,    0.0,    0.0,   -0.1,   -0.1,   -0.0,    0.0,    0.0,    0.0,    0.1,    0.2,   -0.1,    0.1,   -0.1,   -0.0,   -0.1,   -0.1,   -0.1,   -0.0,    0.1,    0.1,   -0.3,   -0.1,    0.0,    0.1,   -0.1,    0.1,   -0.1,    0.0,    0.1,   -0.2,   -0.5,   -0.1,   -0.2,   -0.1,    0.1,    0.1,   -0.1,    0.0,   -0.2,   -0.2,   -0.1,   -0.1,    0.1,    0.0,    0.2,   -0.0,   -0.0,   -0.0,    0.1,    0.0,   -0.1,    0.2,    0.0,    0.1,   -0.1,   -0.2,   -0.1,   -0.1,   -0.0,    0.0,   -0.1,   -0.0,   -0.0,    0.1,   -0.1,   -0.1,  999.0,   -0.1,   -0.1,   -0.1,  999.0,    0.2,  999.0,  999.0,  999.0
2011/11/20 16:10,  999.0,    0.0,   -0.1,    0.1,   -0.0,   -0.0,   -0.1,    0.0,  999.0,   -0.0,   -0.1,   -0.1,    0.0,    0.1,   -0.0,    0.1,   -0.0,    0.1,    0.0,   -0.1,    0.0,    0.1,    0.0,   -0.1,   -0.0,   -0.1,   -0.1,  999.0,   -0.4,   -1.0,   -0.3,   -0.1,    0.1,   -0.2,   -0.5,   -0.4,   -0.1,   -0.1,   -0.2,   -0.1,    0.1,   -0.0,   -0.0,    0.1,    0.2,   -0.0,   -0.1,   -0.1,    0.0,    0.0,    0.0,    0.1,    0.2,   -0.0,   -0.1,   -0.0,    0.0,    0.0,   -0.1,    0.1,    0.1,    0.4,    0.1,   -0.2,   -0.0,    0.0,   -0.0,    0.0,    0.1,    0.1,    0.1,    0.0,    0.1,    0.0,  999.0,  999.0,  999.0,  999.0,  999.0,  999.0
2011/11/20 16:20,  999.0,    0.0,    0.1,   -0.0,    0.1,    0.0,    0.1,   -0.0,    0.0,    0.0,    0.0,   -0.0,   -0.0,  999.0,   -0.0,   -0.2,   -0.1,   -0.0,    0.2,    0.0,   -0.1,   -0.0,    0.2,   -0.1,  999.0,   -0.4,    0.1,    0.2,   -1.1,   -0.5,   -0.1,   -0.0,   -0.0,   -0.1,   -0.4,   -0.5,   -0.2,    0.0,   -0.2,   -0.0,   -0.0,    0.0,    0.0,    0.0,    0.2,    0.0,    0.0,   -0.2,   -0.1,    0.0,    0.0,    0.1,   -0.0,   -0.1,   -0.1,    0.0,    0.0,    0.0,   -0.1,   -0.2,    0.1,   -0.0,   -0.2,   -0.1,   -0.1,   -0.0,   -0.2,   -0.1,   -0.0,   -0.2,    0.2,    0.1,   -0.1,   -0.0,   -0.2,  999.0,  999.0,  999.0,  999.0,  999.0
2011/11/20 16:30,  999.0,  999.0,   -0.0,    0.0,   -0.1,   -0.1,   -0.0,   -0.0,    0.1,   -0.0,    0.1,   -0.1,   -0.1,   -0.1,    0.1,  999.0,   -0.3,   -0.1,   -0.1,  999.0,   -0.2,   -0.1,   -0.4,   -0.7,   -0.5,   -0.3,   -0.7,   -0.5,   -0.2,    0.1,   -0.0,   -0.1,   -0.2,   -0.1,    0.0,   -0.1,   -0.1,    0.0,    0.1,   -0.0,   -0.1,   -0.2,   -0.2,   -0.1,    0.0,   -0.1,   -0.1,    0.0,   -0.0,    0.0,    0.0,   -0.1,    0.1,    0.1,    0.1,    0.1,    0.1,    0.1,   -0.1,    0.0,   -0.1,    0.0,   -0.0,   -0.0,   -0.1,    0.0,    0.1,   -0.0,   -0.1,   -0.0,    0.1,    0.2,    0.1,   -0.3,    0.1,    0.0,  999.0,  999.0,  999.0,  999.0
2011/11/20 16:40,  999.0,  999.0,   -0.0,   -0.0,    0.1,   -0.1,   -0.0,    0.0,   -0.0,   -0.0,   -0.0,   -0.0,   -0.0,   -0.1,   -0.1,   -0.0,    0.0,    0.0,   -0.0,    0.0,    0.0,   -0.1,   -0.2,   -0.0,   -0.3,   -0.2,    0.0,   -0.1,   -0.1,   -0.0,   -0.2,   -0.1,   -0.1,    0.0,   -0.1,    0.0,    0.0,   -0.1,   -0.1,    0.0,   -0.1,   -0.2,   -0.1,   -0.0,   -0.1,   -0.1,    0.0,    0.1,    0.0,    0.0,   -0.0,    0.0,    0.0,   -0.1,   -0.1,    0.1,   -0.2,    0.1,    0.0,    0.2,   -0.1,   -0.0,    0.0,   -0.1,   -0.1,    0.1,    0.1,   -0.0,   -0.1,    0.1,    0.1,   -0.5,   -0.2,   -0.1,   -0.1,  999.0,  999.0,  999.0,  999.0,  999.0
2011/11/20 16:50,  999.0,  999.0,    0.1,    0.0,   -0.0,   -0.1,   -0.0,   -0.0,    0.1,   -0.0,   -0.0,   -0.0,   -0.0,   -0.0,   -0.0,    0.0,  999.0,    0.0,    0.0,   -0.0,    0.0,   -0.0,   -0.4,   -0.2,   -0.1,   -0.1,    0.4,   -0.8,   -0.3,   -0.6,   -0.2,   -0.7,    0.0,    0.0,   -0.1,   -0.1,   -0.0,    0.1,    0.2,    0.1,    0.2,    0.0,   -0.1,    0.0,    0.2,    0.1,    0.0,    0.1,    0.0,   -0.1,    0.1,    0.2,    0.1,    0.1,    0.0,    0.0,    0.0,    0.2,   -0.1,   -0.0,    0.1,    0.1,   -0.0,   -0.1,   -0.1,   -0.1,    0.0,   -0.0,    0.2,    0.3,    0.0,    0.4,    0.0,    0.0,    0.1,  999.0,  999.0,  999.0,  999.0,  999.0
2011/11/20 17:00,  999.0,  999.0,    0.0,    0.1,    0.1,    0.0,   -0.0,    0.1,    0.1,    0.0,    0.0,    0.0,    0.0,   -0.1,   -0.2,    0.0,    0.1,   -0.1,   -0.1,    0.0,   -0.1,    0.0,   -0.1,   -0.3,   -0.3,   -0.0,   -0.2,   -0.5,    0.0,  999.0,  999.0,   -0.3,    0.2,   -0.1,    0.0,    0.1,   -0.1,   -0.0,   -0.0,    0.1,   -0.0,   -0.0,    0.2,   -0.0,   -0.0,   -0.2,   -0.1,   -0.1,   -0.0,   -0.0,   -0.0,    0.2,   -0.1,   -0.1,    0.1,    0.1,   -0.0,   -0.2,   -0.2,   -0.0,    0.2,    0.2,    0.1,    0.0,    0.0,   -0.1,   -0.0,   -0.2,    0.1,    0.1,    0.0,   -0.2,    0.0,    0.0,    0.0,  999.0,  999.0,  999.0,  999.0,  999.0
2011/11/20 17:10,  999.0,  999.0,    0.0,   -0.1,   -0.0,   -0.0,    0.0,   -0.1,  999.0,   -0.1,   -0.0,    0.0,   -0.1,   -0.1,   -0.1,   -0.0,    0.1,   -0.1,   -0.1,    0.1,    0.0,   -0.1,   -0.1,   -0.1,   -0.0,    0.3,    0.3,   -0.1,   -0.5,   -0.5,    0.1,  999.0,   -0.3,   -0.2,   -0.0,    0.0,    0.2,   -0.0,   -0.0,    0.1,   -0.1,    0.0,    0.0,   -0.0,    0.2,    0.1,   -0.0,    0.1,   -0.1,   -0.2,   -0.0,    0.0,   -0.1,   -0.1,    0.0,   -0.1,   -0.2,    0.1,    0.0,   -0.2,   -0.3,    0.2,    0.3,   -0.2,   -0.2,   -0.0,    0.2,    0.1,   -0.1,    0.0,  999.0,    0.1,   -0.1,    0.0,   -0.1,  999.0,  999.0,  999.0,  999.0,  999.0
2011/11/20 17:20,  999.0,  999.0,   -0.0,    0.1,    0.0,   -0.0,    0.1,   -0.0,    0.1,   -0.1,   -0.1,   -0.2,    0.0,   -0.0,    0.1,   -0.1,   -0.0,   -0.1,    0.0,    0.0,   -0.1,   -0.1,   -0.2,    0.0,    0.0,   -0.3,    0.4,    0.4,   -0.6,   -0.1,   -0.0,    0.1,   -0.1,    0.3,   -0.0,   -0.1,   -0.2,    0.0,   -0.1,    0.2,    0.0,    0.0,    0.2,   -0.1,    0.1,    0.1,    0.0,   -0.0,   -0.0,   -0.1,    0.2,   -0.0,   -0.1,    0.1,   -0.2,   -0.1,   -0.1,    0.0,    0.1,   -0.1,   -0.1,   -0.3,   -0.3,    0.0,   -0.1,   -0.3,   -0.1,    0.2,    0.1,    0.2,   -0.2,   -0.1,   -0.0,   -0.0,  999.0,  999.0,  999.0,  999.0,  999.0,  999.0
2011/11/20 17:30,  999.0,  999.0,    0.1,    0.1,    0.0,    0.0,   -0.0,    0.0,    0.1,    0.1,    0.0,   -0.0,    0.0,    0.1,    0.0,    0.1,   -0.1,   -0.1,   -0.0,   -0.1,   -0.1,   -0.0,   -0.1,   -0.1,   -0.1,   -0.1,   -0.8,   -0.7,   -1.2,   -0.2,  999.0,   -0.0,    0.1,    0.0,   -0.0,   -0.1,    0.0,    0.1,   -0.1,   -0.1,   -0.2,   -0.0,    0.0,   -0.1,    0.0,    0.1,    0.1,    0.1,    0.1,    0.1,   -0.0,   -0.1,   -0.1,   -0.1,    0.0,   -0.0,    0.0,    0.0,    0.1,   -0.3,    0.0,    0.1,    0.1,    0.1,   -0.1,    0.1,    0.4,    0.2,   -0.2,   -0.1,   -0.1,    0.0,    0.1,   -0.2,   -0.1,  999.0,  999.0,  999.0,  999.0,  999.0
2011/11/20 17:40,  999.0,  999.0,    0.0,    0.1,   -0.0,    0.1,   -0.0,    0.0,    0.0,    0.0,    0.1,    0.1,    0.0,    0.2,    0.0,    0.0,    0.1,    0.0,    0.0,    0.1,    0.0,   -0.1,    0.1,    0.0,   -0.1,  999.0,  999.0,   -0.0,   -0.1,   -0.1,    0.0,   -0.2,    0.0,   -0.1,    0.1,    0.1,    0.1,   -0.0,   -0.1,   -0.2,   -0.0,   -0.1,   -0.0,    0.1,    0.0,    0.0,   -0.0,   -0.0,   -0.0,    0.0,    0.0,    0.2,   -0.1,   -0.2,   -0.1,    0.1,    0.2,    0.1,    0.3,   -0.0,   -0.1,    0.1,   -0.1,    0.1,    0.1,   -0.2,   -0.0,    0.1,    0.3,   -0.1,    0.2,    0.3,   -0.1,    0.2,    0.0,  999.0,  999.0,  999.0,  999.0,  999.0
2011/11/20 17:50,  999.0,  999.0,    0.0,    0.0,   -0.0,   -0.0,   -0.1,   -0.1,    0.0,    0.0,   -0.0,    0.1,   -0.1,   -0.0,   -0.1,  999.0,    0.0,    0.1,    0.0,   -0.1,   -0.1,   -0.1,   -0.1,    0.0,   -0.1,   -0.1,   -0.1,   -0.0,   -0.0,    0.0,   -0.0,   -0.1,   -0.0,   -0.1,   -0.0,    0.0,    0.0,    0.0,   -0.0,    0.1,   -0.0,   -0.1,   -0.1,    0.0,   -0.0,   -0.1,   -0.1,   -0.0,    0.1,    0.0,    0.1,   -0.0,   -0.1,   -0.1,   -0.2,   -0.0,    0.1,   -0.0,    0.0,   -0.0,   -0.1,    0.0,    0.2,   -0.1,   -0.0,   -0.2,   -0.1,    0.3,   -0.2,    0.1,  999.0,    0.0,  999.0,  999.0,   -0.2,  999.0,  999.0,  999.0,  999.0,  999.0
2011/11/20 18:00,  999.0,  999.0,    0.0,    0.0,    0.0,   -0.0,   -0.1,   -0.1,   -0.1,   -0.1,    0.0,    0.0,    0.0,  999.0,   -0.0,   -0.0,   -0.1,   -0.0,    0.1,    0.1,   -0.0,   -0.1,    0.0,    0.0,    0.0,    0.1,  999.0,   -0.2,    0.0,   -0.0,  999.0,    0.0,    0.0,   -0.0,   -0.0,   -0.2,    0.0,    0.0,    0.0,    0.1,   -0.0,   -0.1,   -0.0,   -0.0,    0.1,    0.1,    0.1,    0.0,    0.0,    0.0,   -0.2,    0.0,    0.1,    0.1,    0.1,   -0.1,    0.1,    0.1,    0.3,    0.2,    0.0,    0.1,   -0.0,   -0.2,   -0.0,   -0.0,    0.1,   -0.0,   -0.1,    0.1,   -0.1,   -0.0,   -0.2,   -0.2,   -0.0,  999.0,  999.0,  999.0,  999.0,  999.0
2011/11/20 18:10,  999.0,  999.0,   -0.0,    0.1,    0.1,    0.0,   -0.0,   -0.2,   -0.0,   -0.0,   -0.0,   -0.0,   -0.0,   -0.1,   -0.0,   -0.0,    0.1,   -0.0,    0.0,    0.1,    0.1,   -0.0,    0.0,   -0.0,    0.1,    0.0,    0.0,   -0.0,    0.1,    0.2,  999.0,    0.1,    0.0,    0.0,   -0.0,   -0.1,   -0.1,   -0.0,    0.1,   -0.0,   -0.0,   -0.1,   -0.2,   -0.1,   -0.1,   -0.1,    0.1,   -0.2,   -0.1,    0.1,    0.0,   -0.1,   -0.2,   -0.1,    0.1,    0.0,    0.1,   -0.2,   -0.0,   -0.0,    0.2,   -0.1,   -0.1,    0.1,    0.2,    0.1,   -0.0,    0.0,   -0.1,    0.3,   -0.4,    0.2,    0.1,   -0.1,   -0.0,  999.0,  999.0,  999.0,  999.0,  999.0
2011/11/20 18:20,  999.0,  999.0,    0.0,    0.1,    0.1,    0.1,   -0.0,   -0.0,   -0.1,   -0.1,   -0.0,    0.0,   -0.0,    0.0,    0.1,    0.1,    0.1,    0.1,    0.0,   -0.0,   -0.0,    0.1,   -0.0,    0.1,    0.1,    0.0,   -0.0,    0.0,    0.0,    0.0,    0.0,   -0.1,   -0.0,    0.0,   -0.0,   -0.0,    0.0,    0.1,   -0.0,   -0.0,   -0.0,   -0.0,    0.1,    0.0,    0.1,   -0.0,   -0.0,   -0.1,   -0.1,   -0.1,    0.0,   -0.1,   -0.1,   -0.1,   -0.1,   -0.0,    0.0,   -0.1,    0.0,    0.1,   -0.1,    0.3,    0.2,    0.0,   -0.0,   -0.1,    0.1,    0.1,   -0.1,   -0.2,    0.0,    0.1,   -0.0,   -0.2,   -0.1,  999.0,  999.0,  999.0,  999.0,  999.0
2011/11/20 18:30,  999.0,  999.0,   -0.1,   -0.1,   -0.0,    0.0,    0.1,   -0.0,   -0.1,    0.1,    0.0,    0.0,   -0.0,   -0.0,    0.1,    0.0,   -0.0,   -0.1,    0.0,   -0.1,   -0.0,   -0.0,    0.0,    0.0,    0.1,    0.0,    0.0,   -0.0,   -0.0,    0.0,    0.0,    0.0,    0.0,   -0.1,   -0.2,   -0.1,   -0.1,   -0.1,   -0.2,   -0.1,   -0.0,   -0.0,    0.1,   -0.1,   -0.0,    0.0,    0.0,   -0.0,   -0.0,   -0.0,   -0.1,    0.1,    0.0,    0.0,    0.1,   -0.1,    0.1,    0.0,   -0.0,   -0.0,    0.0,    0.0,    0.0,    0.0,    0.1,   -0.0,   -0.1,   -0.0,   -0.1,   -0.0,  999.0,  999.0,   -0.1,   -0.0,   -0.3,  999.0,  999.0,  999.0,  999.0,  999.0
2011/11/20 18:40,  999.0,  999.0,    0.1,   -0.0,    0.1,    0.1,   -0.0,   -0.0,   -0.0,    0.1,   -0.0,   -0.1,   -0.0,    0.0,    0.1,    0.1,    0.0,    0.0,    0.0,   -0.1,   -0.1,   -0.1,    0.0,   -0.0,   -0.0,    0.1,    0.0,   -0.0,   -0.0,   -0.1,   -0.0,   -0.0,    0.0,    0.0,    0.0,    0.1,    0.0,    0.1,    0.1,    0.0,    0.0,    0.0,   -0.0,    0.0,    0.0,    0.1,   -0.1,   -0.0,   -0.0,    0.0,   -0.0,   -0.1,   -0.1,    0.0,    0.1,   -0.0,    0.1,    0.1,    0.1,    0.2,   -0.0,    0.0,   -0.2,   -0.0,    0.1,   -0.0,   -0.0,   -0.0,    0.0,    0.0,    0.1,  999.0,   -0.0,    0.1,    0.0,  999.0,  999.0,  999.0,  999.0,  999.0
2011/11/20 18:50,  999.0,  999.0,   -0.0,   -0.0,    0.0,   -0.1,    0.1,    0.1,   -0.0,    0.1,    0.0,   -0.0,   -0.0,    0.1,    0.1,   -0.0,    0.0,   -0.0,   -0.0,   -0.0,   -0.1,   -0.0,   -0.0,    0.1,    0.0,    0.1,    0.1,   -0.0,   -0.0,   -0.0,    0.0,   -0.1,   -0.1,   -0.0,   -0.0,    0.0,    0.0,   -0.0,    0.0,   -0.1,   -0.0,   -0.2,   -0.1,   -0.0,    0.1,    0.0,    0.1,    0.0,    0.1,   -0.0,   -0.1,    0.1,    0.1,    0.1,    0.1,   -0.0,   -0.1,    0.1,   -0.0,   -0.1,   -0.0,    0.0,    0.0,    0.0,    0.1,    0.0,   -0.1,    0.0,   -0.1,   -0.0,   -0.5,    0.0,   -0.1,   -0.1,  999.0,  999.0,  999.0,  999.0,  999.0,  999.0
2011/11/20 19:00,  999.0,  999.0,   -0.0,   -0.0,   -0.0,   -0.0,    0.0,   -0.0,   -0.0,   -0.0,   -0.0,   -0.1,   -0.1,    0.0,    0.0,   -0.1,    0.1,    0.1,    0.0,    0.1,   -0.0,   -0.0,    0.0,   -0.0,   -0.1,   -0.0,  999.0,    0.0,   -0.1,    0.1,    0.1,    0.0,    0.1,   -0.0,    0.0,   -0.0,   -0.1,    0.0,   -0.1,    0.0,   -0.0,   -0.0,   -0.0,   -0.1,    0.0,    0.1,   -0.0,    0.1,   -0.0,   -0.1,    0.1,    0.1,    0.2,   -0.0,   -0.0,    0.0,    0.2,    0.1,    0.1,    0.0,    0.2,   -0.2,   -0.0,   -0.1,   -0.1,    0.0,    0.1,    0.2,    0.3,    0.0,   -0.1,   -0.2,   -0.1,    0.0,   -0.2,  999.0,  999.0,  999.0,  999.0,  999.0
2011/11/20 19:10,  999.0,  999.0,    0.2,   -0.0,    0.0,    0.1,    0.0,    0.1,  999.0,    0.1,    0.1,   -0.1,   -0.1,   -0.1,    0.0,    0.1,   -0.0,   -0.0,   -0.0,   -0.2,   -0.0,    0.0,    0.0,   -0.0,  999.0,    0.1,    0.0,   -0.1,   -0.1,    0.1,    0.1,   -0.1,    0.0,   -0.1,   -0.0,   -0.0,   -0.1,    0.1,    0.1,    0.2,   -0.0,   -0.0,    0.1,    0.1,   -0.1,   -0.0,    0.1,    0.0,   -0.0,    0.2,   -0.1,    0.1,    0.1,   -0.1,   -0.2,   -0.0,    0.0,    0.0,   -0.1,   -0.1,   -0.0,   -0.2,    0.1,   -0.1,   -0.0,   -0.2,    0.0,   -0.1,   -0.3,    0.1,  999.0,   -0.1,    0.2,    0.0,   -0.2,  999.0,  999.0,  999.0,  999.0,  999.0
2011/11/20 19:20,  999.0,  999.0,    0.0,   -0.0,  999.0,   -0.0,   -0.0,  999.0,    0.2,  999.0,    0.0,   -0.3,   -0.1,    0.2,   -0.0,   -0.0,    0.0,   -0.0,    0.1,    0.0,   -0.1,   -0.0,    0.0,    0.1,  999.0,    0.1,   -0.0,  999.0,    0.0,   -0.0,    0.0,   -0.1,    0.1,    0.0,    0.1,   -0.0,    0.0,   -0.1,   -0.1,    0.0,   -0.2,   -0.2,   -0.2,    0.1,    0.2,    0.0,    0.1,    0.0,   -0.0,   -0.0,    0.1,   -0.2,    0.2,    0.1,    0.1,    0.0,   -0.0,    0.1,    0.0,   -0.2,    0.0,    0.1,    0.1,    0.0,    0.1,   -0.2,   -0.0,    0.2,   -0.0,   -0.1,   -0.3,  999.0,  999.0,  999.0,    0.0,  999.0,  999.0,  999.0,  999.0,  999.0
2011/11/20 19:30,  999.0,  999.0,   -0.2,    0.1,   -0.0,    0.0,   -0.2,    0.2,    0.2,  999.0,    0.0,    0.0,  999.0,    0.1,   -0.0,    0.0,    0.0,   -0.1,  999.0,   -0.0,   -0.0,   -0.0,   -0.0,    0.2,   -0.2,   -0.2,    0.1,   -0.1,   -0.0,    0.1,   -0.1,   -0.2,    0.0,   -0.1,   -0.1,   -0.2,   -0.2,   -0.0,   -0.1,   -0.0,   -0.1,   -0.1,   -0.0,   -0.1,   -0.0,    0.1,    0.0,    0.0,   -0.0,   -0.0,    0.1,   -0.0,    0.1,    0.0,    0.0,   -0.0,    0.0,    0.0,   -0.0,   -0.0,   -0.0,   -0.0,   -0.0,    0.0,   -0.1,   -0.1,   -0.1,    0.0,    0.2,    0.1,   -0.1,    0.1,  999.0,    0.0,   -0.3,  999.0,  999.0,  999.0,  999.0,  999.0
2011/11/20 19:40,  999.0,  999.0,   -0.1,    0.2,    0.1,    0.1,    0.1,    0.3,    0.2,    0.3,   -0.1,    0.3,    0.1,   -0.0,    0.1,    0.1,    0.1,    0.1,    0.1,   -0.3,   -0.2,   -0.4,   -0.4,   -0.0,    0.1,   -0.1,   -0.2,   -0.6,   -0.1,    0.0,   -0.1,   -0.1,    0.0,    0.1,    0.0,    0.1,    0.2,    0.1,    0.1,   -0.1,   -0.3,   -0.4,   -0.2,    0.2,    0.2,    0.2,    0.0,   -0.2,   -0.0,    0.1,    0.0,    0.0,   -0.1,   -0.2,   -0.1,    0.0,   -0.0,    0.0,   -0.1,    0.2,   -0.1,    0.0,   -0.1,    0.2,    0.7,    0.2,   -0.0,  999.0,   -0.1,    0.1,    0.1,  999.0,   -0.1,  999.0,   -0.3,  999.0,  999.0,  999.0,  999.0,  999.0
2011/11/20 19:50,  999.0,    0.0,   -0.1,   -0.1,   -0.1,   -0.1,   -0.2,   -0.2,    0.1,    0.0,    0.2,    0.2,    0.1,   -0.2,   -0.2,    0.2,    0.1,    0.0,   -0.1,   -0.1,   -0.1,   -0.3,   -0.3,   -0.7,   -0.6,   -0.3,   -0.8,   -1.2,   -0.4,    0.1,    0.0,    0.0,   -0.2,    0.0,   -0.1,   -0.1,    0.1,    0.1,   -0.0,   -0.0,   -0.2,   -0.3,   -0.1,   -0.2,   -0.3,    0.1,   -0.2,   -0.1,   -0.1,   -0.2,   -0.0,   -0.0,   -0.1,   -0.1,   -0.1,   -0.0,   -0.0,   -0.1,    0.4,    0.1,   -0.3,   -0.2,    0.1,  999.0,   -0.2,    0.4,   -0.0,  999.0,  999.0,  999.0,    0.0,  999.0,  999.0,  999.0,  999.0,  999.0,  999.0,  999.0,  999.0,  999.0
2011/11/20 20:00,  999.0,   -0.2,   -0.1,    0.0,    0.2,    0.0,   -0.0,   -0.1,    0.2,    0.1,    0.1,    0.3,    0.1,   -0.1,   -0.1,    0.1,    0.0,    0.1,   -0.0,   -0.1,   -0.1,   -0.2,   -0.3,   -0.8,   -0.5,   -0.6,   -0.7,   -2.1,   -1.0,    0.1,   -0.1,   -0.2,    0.1,    0.1,    0.0,    0.0,  999.0,   -0.1,   -0.0,   -0.2,   -0.0,   -0.4,   -0.4,    0.0,   -0.0,   -0.2,   -0.1,    0.0,    0.1,  999.0,    0.1,   -0.1,   -0.0,    0.2,   -0.3,   -0.0,   -0.3,    0.0,    0.1,  999.0,    0.1,   -0.1,   -0.1,   -0.2,   -0.5,  999.0,  999.0,  999.0,  999.0,  999.0,    0.0,  999.0,   -0.2,    0.3,  999.0,  999.0,  999.0,  999.0,  999.0,  999.0
2011/11/20 20:10,  999.0,    0.0,   -0.0,    0.1,    0.4,    0.4,    0.3,    0.5,  999.0,    0.3,    0.2,   -0.0,    0.2,    0.6,    0.5,    0.3,   -0.0,   -0.1,   -0.2,   -0.1,   -0.2,   -0.2,   -0.4,   -0.4,   -1.0,   -0.9,   -0.4,   -1.8,   -1.8,   -0.2,   -0.2,   -0.3,   -0.1,    0.2,    0.2,   -0.1,   -0.0,   -0.1,   -0.0,   -0.3,   -0.2,    0.0,   -0.1,    0.3,    0.0,    0.1,    0.2,    0.0,   -0.1,  999.0,    0.1,    0.1,    0.2,    0.0,   -0.0,    0.2,    0.5,   -0.1,   -0.2,    0.3,   -0.1,  999.0,  999.0,    0.1,  999.0,  999.0,  999.0,  999.0,    0.0,  999.0,   -0.2,  999.0,  999.0,  999.0,  999.0,  999.0,  999.0,  999.0,  999.0,  999.0
2011/11/20 20:20,  999.0,   -0.1,   -0.0,   -0.1,  999.0,    0.0,  999.0,   -0.1,    0.0,    0.1,    0.1,    0.1,   -0.0,    0.1,    0.4,    0.4,    0.1,   -0.0,    0.1,    0.0,   -0.1,   -0.3,   -0.4,   -0.4,   -0.6,   -0.2,   -0.9,   -1.6,   -0.5,    0.0,    0.0,   -0.1,   -0.1,   -0.3,   -0.2,   -0.0,    0.1,   -0.2,    0.3,   -0.3,   -0.3,   -0.2,   -0.0,   -0.0,    0.0,   -0.0,   -0.1,   -0.0,   -0.1,   -0.1,   -0.0,   -0.1,   -0.1,   -0.1,    0.0,   -0.4,    0.2,    0.2,    0.1,   -0.0,  999.0,   -0.1,    0.1,    0.2,    0.0,  999.0,  999.0,    0.3,  999.0,  999.0,    0.1,    0.0,   -0.1,  999.0,   -0.0,  999.0,  999.0,  999.0,  999.0,  999.0
2011/11/20 20:30,  999.0,  999.0,    0.0,    0.1,   -0.0,    0.0,  999.0,    0.1,   -0.2,   -0.0,    0.2,    0.1,    0.1,    0.4,    0.2,    0.1,    0.0,    0.1,    0.1,    0.0,    0.2,   -0.2,   -0.2,   -0.0,   -0.1,   -0.2,   -0.5,   -0.5,   -0.1,   -0.1,   -0.0,   -0.1,   -0.0,   -0.1,   -0.1,   -0.1,    0.2,   -0.2,   -0.1,    0.0,   -0.2,    0.1,    0.0,   -0.0,    0.0,    0.1,   -0.0,    0.0,    0.0,   -0.1,    0.1,   -0.1,   -0.1,    0.0,   -0.0,   -0.1,   -0.0,    0.0,    0.2,    0.0,    0.3,    0.2,  999.0,    0.1,  999.0,   -0.0,    0.2,    0.2,    0.3,  999.0,    0.3,   -0.2,   -0.1,    0.0,  999.0,  999.0,  999.0,  999.0,  999.0,  999.0
2011/11/20 20:40,  999.0,    0.0,   -0.1,   -0.0,    0.0,   -0.0,    0.1,    0.1,    0.2,    0.1,    0.1,    0.0,   -0.0,    0.0,   -0.2,   -0.1,    0.1,  999.0,  999.0,    0.3,  999.0,   -0.2,    0.0,   -0.1,   -0.1,   -0.1,   -0.1,   -0.1,   -0.1,    0.1,   -0.1,    0.1,    0.1,   -0.0,   -0.1,   -0.0,    0.0,    0.0,    0.1,    0.0,   -0.1,   -0.1,   -0.1,   -0.1,    0.1,   -0.0,   -0.0,   -0.0,   -0.1,   -0.1,    0.0,    0.0,   -0.0,   -0.1,    0.2,   -0.0,   -0.2,    0.0,    0.0,    0.1,   -0.1,    0.2,   -0.2,   -0.1,   -0.2,    0.2,   -0.1,    0.0,  999.0,    0.3,    0.3,  999.0,  999.0,    0.0,   -0.2,  999.0,  999.0,  999.0,  999.0,  999.0
2011/11/20 20:50,  999.0,  999.0,   -0.0,   -0.0,   -0.0,   -0.0,   -0.0,   -0.1,   -0.1,   -0.0,   -0.0,    0.1,    0.1,   -0.1,    0.1,    0.1,    0.1,    0.0,    0.0,   -0.0,  999.0,    0.0,    0.1,    0.1,    0.1,    0.0,   -0.1,   -0.2,   -0.0,   -0.0,    0.1,    0.0,    0.1,   -0.1,   -0.0,    0.2,   -0.0,   -0.0,   -0.1,    0.0,   -0.0,    0.1,    0.1,    0.0,   -0.0,   -0.0,    0.0,    0.0,    0.2,    0.0,   -0.0,   -0.0,    0.1,    0.2,    0.0,   -0.1,   -0.1,    0.1,    0.1,    0.2,   -0.0,    0.1,   -0.3,   -0.1,   -0.1,   -0.2,   -0.0,  999.0,    0.2,    0.5,   -0.1,    0.1,  999.0,   -0.1,    0.1,  999.0,  999.0,  999.0,  999.0,  999.0
2011/11/20 21:00,  999.0,  999.0,   -0.0,   -0.0,    0.0,   -0.0,   -0.1,   -0.0,    0.0,   -0.0,   -0.0,   -0.1,    0.1,    0.0,   -0.0,    0.0,    0.0,    0.0,   -0.0,    0.0,   -0.0,    0.0,   -0.0,    0.0,    0.1,    0.0,    0.0,    0.1,   -0.1,    0.0,   -0.0,    0.1,   -0.0,   -0.1,   -0.1,   -0.1,   -0.0,   -0.0,   -0.0,    0.1,    0.1,    0.1,    0.0,    0.1,   -0.0,   -0.0,    0.0,   -0.0,    0.0,    0.1,    0.0,    0.0,    0.1,   -0.1,    0.1,    0.1,   -0.0,    0.0,   -0.1,    0.1,    0.1,   -0.1,   -0.1,   -0.1,   -0.1,   -0.1,    0.1,    0.2,    0.2,    0.1,  999.0,   -0.1,   -0.1,    0.1,   -0.4,  999.0,  999.0,  999.0,  999.0,  999.0
2011/11/20 21:10,  999.0,  999.0,   -0.0,   -0.0,    0.1,    0.2,   -0.0,    0.0,   -0.1,   -0.1,   -0.0,   -0.0,   -0.0,   -0.1,    0.0,    0.1,    0.0,    0.0,    0.0,   -0.0,    0.0,    0.0,   -0.0,   -0.0,    0.1,   -0.0,   -0.0,    0.0,    0.0,   -0.1,    0.1,    0.1,   -0.0,    0.0,   -0.0,   -0.1,   -0.0,   -0.0,   -0.1,   -0.1,   -0.0,   -0.0,    0.1,    0.0,    0.1,   -0.0,    0.0,    0.0,   -0.1,    0.2,    0.3,    0.1,   -0.1,    0.1,   -0.0,    0.1,   -0.0,   -0.0,   -0.2,    0.0,   -0.0,   -0.0,    0.1,   -0.2,   -0.1,   -0.0,   -0.1,   -0.3,   -0.1,   -0.1,   -0.2,   -0.0,    0.3,    0.3,    0.1,  999.0,  999.0,  999.0,  999.0,  999.0
2011/11/20 21:20,  999.0,  999.0,   -0.0,    0.1,   -0.0,    0.2,   -0.0,    0.0,  999.0,    0.0,    0.1,    0.1,    0.0,    0.0,   -0.1,    0.0,   -0.1,   -0.1,   -0.0,    0.0,   -0.1,   -0.1,   -0.0,    0.0,    0.1,   -0.1,   -0.0,   -0.0,    0.2,   -0.0,   -0.0,    0.0,   -0.0,   -0.0,   -0.1,   -0.0,   -0.0,    0.1,   -0.0,   -0.0,   -0.1,   -0.1,   -0.0,   -0.1,    0.2,    0.1,   -0.0,   -0.0,    0.0,   -0.0,   -0.2,   -0.0,    0.1,    0.2,   -0.0,   -0.1,   -0.1,   -0.0,    0.1,    0.1,    0.3,    0.3,    0.1,    0.2,    0.0,   -0.0,   -0.0,   -0.0,    0.1,    0.1,    0.2,   -0.1,   -0.1,   -0.2,   -0.2,  999.0,  999.0,  999.0,  999.0,  999.0
2011/11/20 21:30,  999.0,  999.0,   -0.0,    0.1,   -0.2,    0.1,    0.1,    0.0,   -0.0,    0.0,    0.1,    0.0,   -0.1,   -0.1,   -0.1,   -0.0,   -0.0,   -0.0,   -0.0,   -0.0,   -0.1,   -0.1,   -0.0,   -0.0,   -0.0,   -0.0,    0.1,   -0.0,    0.0,   -0.1,   -0.0,    0.0,    0.0,   -0.1,    0.0,   -0.0,   -0.1,    0.1,   -0.0,    0.0,   -0.1,   -0.0,    0.1,    0.0,   -0.1,    0.0,   -0.1,   -0.1,   -0.0,    0.0,    0.1,   -0.1,   -0.2,    0.0,   -0.0,   -0.0,   -0.1,    0.1,    0.1,    0.0,   -0.0,    0.1,    0.2,    0.1,    0.1,    0.2,   -0.1,   -0.1,  999.0,    0.1,    0.0,   -0.2,    0.1,    0.0,   -0.3,  999.0,  999.0,  999.0,  999.0,  999.0
2011/11/20 21:40,  999.0,  999.0,   -0.1,    0.0,  999.0,    0.0,   -0.1,  999.0,  999.0,   -0.1,    0.1,   -0.2,   -0.0,  999.0,   -0.0,  999.0,    0.0,   -0.1,   -0.2,   -0.0,    0.1,   -0.1,   -0.1,    0.0,    0.1,    0.0,   -0.0,    0.0,    0.0,   -0.0,    0.0,    0.0,    0.0,   -0.1,   -0.1,   -0.1,    0.0,    0.1,   -0.1,   -0.0,   -0.0,   -0.0,    0.0,    0.1,   -0.0,   -0.1,    0.1,   -0.1,   -0.1,    0.0,   -0.1,    0.1,   -0.2,   -0.1,    0.2,    0.1,    0.1,    0.0,    0.0,    0.2,   -0.1,    0.1,   -0.0,    0.1,    0.2,    0.1,    0.1,   -0.1,    0.0,    0.3,    0.3,   -0.0,    0.1,   -0.0,   -0.1,  999.0,  999.0,  999.0,  999.0,  999.0
2011/11/20 21:50,  999.0,    0.0,    0.0,    0.0,    0.1,   -0.0,   -0.1,   -0.1,   -0.2,   -0.2,    0.2,    0.1,    0.3,  999.0,   -0.0,   -0.0,    0.0,  999.0,   -0.1,    0.0,    0.0,   -0.1,    0.1,    0.1,   -0.0,   -0.1,   -0.1,    0.0,    0.0,   -0.2,   -0.1,    0.0,    0.0,   -0.0,   -0.1,    0.0,    0.0,   -0.0,   -0.1,    0.1,   -0.1,   -0.1,    0.1,    0.0,    0.0,   -0.1,    0.0,    0.1,    0.1,   -0.1,   -0.0,   -0.0,   -0.1,   -0.1,   -0.1,   -0.3,    0.1,   -0.0,    0.0,    0.1,   -0.2,   -0.2,   -0.1,    0.2,   -0.1,   -0.2,   -0.2,   -0.1,    0.4,   -0.2,    0.2,    0.0,    0.1,    0.1,    0.1,  999.0,  999.0,  999.0,  999.0,  999.0
2011/11/20 22:00,  999.0,  999.0,   -0.1,   -0.1,    0.1,    0.0,   -0.1,    0.1,  999.0,    0.0,    0.2,    0.1,    0.0,  999.0,   -0.0,  999.0,    0.0,    0.1,    0.0,   -0.0,    0.0,   -0.0,    0.0,    0.0,    0.0,    0.0,   -0.1,    0.1,   -0.1,   -0.1,   -0.0,    0.0,   -0.1,    0.0,    0.0,   -0.1,   -0.0,   -0.0,   -0.1,    0.1,   -0.1,    0.0,    0.2,    0.0,   -0.1,    0.0,    0.0,    0.0,    0.0,   -0.0,    0.1,    0.0,   -0.1,    0.1,   -0.1,    0.1,    0.1,    0.2,   -0.0,    0.2,   -0.1,    0.2,   -0.2,    0.0,    0.1,   -0.1,   -0.4,   -0.1,    0.4,   -0.2,    0.3,  999.0,   -0.0,    0.1,    0.0,  999.0,  999.0,  999.0,  999.0,  999.0
2011/11/20 22:10,  999.0,  999.0,   -0.1,    0.0,    0.1,   -0.0,   -0.0,   -0.1,   -0.0,   -0.0,    0.0,    0.1,   -0.1,   -0.2,   -0.2,   -0.1,   -0.2,   -0.1,   -0.0,   -0.1,   -0.0,    0.0,   -0.0,   -0.0,    0.0,    0.1,   -0.0,   -0.1,   -0.1,   -0.0,   -0.0,   -0.0,    0.0,   -0.1,   -0.0,   -0.0,    0.0,   -0.0,    0.0,    0.0,   -0.0,   -0.1,    0.0,    0.0,   -0.0,    0.0,   -0.0,    0.0,    0.0,   -0.0,    0.1,   -0.1,    0.1,   -0.0,   -0.2,   -0.1,    0.2,   -0.0,   -0.1,    0.0,    0.0,   -0.0,    0.0,    0.2,  999.0,   -0.0,    0.3,    0.2,    0.0,   -0.2,   -0.1,    0.1,    0.1,    0.1,    0.0,  999.0,  999.0,  999.0,  999.0,  999.0
2011/11/20 22:20,  999.0,    0.1,   -0.1,    0.0,    0.0,    0.0,    0.2,    0.0,   -0.1,    0.0,    0.1,   -0.4,   -0.3,   -0.1,   -0.1,   -0.0,   -0.1,   -0.0,    0.0,   -0.0,    0.0,    0.0,    0.0,    0.1,   -0.0,   -0.0,    0.1,    0.1,    0.1,   -0.0,   -0.0,    0.0,    0.0,   -0.0,    0.1,    0.0,   -0.0,   -0.0,    0.1,   -0.1,   -0.0,    0.0,   -0.1,   -0.1,    0.0,    0.0,    0.0,   -0.0,   -0.0,    0.0,    0.0,   -0.1,   -0.1,   -0.0,   -0.1,   -0.1,    0.1,   -0.0,    0.0,   -0.1,    0.2,   -0.1,   -0.1,   -0.2,   -0.1,    0.0,    0.2,    0.1,   -0.0,   -0.3,    0.0,  999.0,   -0.0,   -0.1,   -0.2,  999.0,  999.0,  999.0,  999.0,  999.0
2011/11/20 22:30,  999.0,  999.0,   -0.0,   -0.1,   -0.0,    0.1,    0.0,    0.0,  999.0,    0.0,    0.1,   -0.1,   -0.1,    0.0,   -0.1,   -0.1,   -0.0,    0.0,    0.1,    0.0,   -0.0,   -0.1,    0.0,   -0.0,   -0.0,    0.0,    0.0,   -0.1,    0.0,    0.1,   -0.1,   -0.0,   -0.0,   -0.0,   -0.0,    0.1,   -0.0,    0.0,    0.0,   -0.0,   -0.1,    0.1,    0.0,    0.1,    0.1,   -0.1,    0.1,   -0.1,   -0.1,   -0.1,   -0.1,   -0.0,    0.1,   -0.0,   -0.1,   -0.1,    0.1,   -0.1,   -0.2,    0.1,    0.1,    0.0,   -0.0,    0.1,   -0.0,   -0.2,   -0.2,   -0.1,   -0.2,    0.1,    0.2,   -0.5,   -0.2,   -0.1,    0.0,  999.0,  999.0,  999.0,  999.0,  999.0
2011/11/20 22:40,  999.0,  999.0,    0.0,    0.1,   -0.1,    0.0,    0.1,   -0.1,   -0.0,    0.0,   -0.0,   -0.0,   -0.0,    0.0,   -0.0,    0.0,   -0.0,   -0.1,    0.0,    0.0,    0.0,   -0.0,   -0.0,    0.0,    0.0,   -0.0,   -0.0,   -0.0,   -0.1,   -0.2,   -0.0,    0.0,    0.0,   -0.0,   -0.0,   -0.0,   -0.0,   -0.1,   -0.1,    0.1,   -0.3,   -0.0,    0.0,    0.0,    0.1,    0.1,   -0.1,   -0.0,   -0.0,   -0.0,   -0.1,    0.1,    0.1,    0.1,   -0.1,   -0.1,   -0.2,   -0.0,   -0.1,    0.0,    0.0,   -0.1,    0.0,   -0.1,    0.3,    0.0,    0.0,   -0.2,    0.3,   -0.1,  999.0,   -0.2,   -0.1,   -0.1,    0.1,  999.0,  999.0,  999.0,  999.0,  999.0
2011/11/20 22:50,  999.0,  999.0,    0.0,   -0.1,   -0.0,   -0.0,    0.1,  999.0,   -0.1,   -0.0,   -0.0,    0.0,    0.1,    0.0,    0.0,   -0.1,   -0.0,   -0.1,   -0.0,   -0.0,   -0.0,   -0.1,   -0.1,   -0.0,   -0.0,    0.1,   -0.1,    0.0,   -0.0,   -0.0,    0.0,   -0.0,    0.0,    0.1,   -0.1,   -0.1,    0.1,    0.0,    0.1,    0.0,   -0.0,   -0.0,    0.0,    0.1,    0.0,    0.0,    0.2,    0.1,    0.1,   -0.0,    0.0,    0.1,   -0.0,    0.0,   -0.0,   -0.0,   -0.3,   -0.1,    0.1,   -0.2,   -0.2,   -0.3,   -0.1,   -0.1,   -0.1,    0.1,    0.0,  999.0,   -0.0,    0.2,   -0.1,   -0.2,    0.0,    0.1,   -0.1,  999.0,  999.0,  999.0,  999.0,  999.0
2011/11/20 23:00,  999.0,  999.0,    0.0,   -0.0,   -0.1,    0.0,    0.1,   -0.0,    0.0,    0.0,   -0.2,   -0.0,    0.0,   -0.1,   -0.1,   -0.1,   -0.2,   -0.0,   -0.0,    0.0,   -0.0,    0.1,    0.1,   -0.0,   -0.0,    0.0,    0.0,    0.1,   -0.1,   -0.0,    0.1,    0.0,    0.0,   -0.1,    0.1,   -0.0,   -0.0,   -0.0,   -0.0,   -0.0,    0.1,   -0.1,    0.0,   -0.0,    0.0,    0.1,    0.0,    0.1,    0.1,    0.0,   -0.0,   -0.0,   -0.1,    0.1,    0.0,    0.0,    0.1,    0.1,   -0.1,   -0.2,   -0.2,    0.0,    0.1,    0.0,    0.0,   -0.0,   -0.0,   -0.2,    0.1,   -0.2,   -0.0,    0.1,   -0.1,    0.2,  999.0,  999.0,  999.0,  999.0,  999.0,  999.0
2011/11/20 23:10,  999.0,  999.0,   -0.1,    0.0,    0.0,    0.1,    0.1,   -0.0,    0.0,   -0.1,   -0.1,    0.1,    0.1,    0.1,   -0.0,   -0.1,   -0.1,   -0.0,   -0.0,   -0.0,   -0.1,    0.0,   -0.1,    0.0,    0.1,   -0.0,   -0.1,   -0.1,   -0.1,   -0.0,   -0.1,    0.0,    0.0,   -0.0,   -0.0,   -0.2,   -0.1,   -0.1,    0.0,    0.0,    0.0,    0.0,    0.1,    0.0,   -0.0,   -0.0,   -0.0,   -0.0,    0.0,    0.0,    0.0,    0.0,    0.0,   -0.1,   -0.0,   -0.1,    0.0,    0.1,   -0.0,    0.0,    0.1,   -0.1,   -0.2,    0.0,   -0.0,   -0.0,    0.1,   -0.1,   -0.5,    0.3,   -0.0,   -0.0,    0.0,    0.0,   -0.2,  999.0,  999.0,  999.0,  999.0,  999.0
2011/11/20 23:20,  999.0,  999.0,    0.0,   -0.0,    0.1,    0.0,   -0.1,   -0.1,    0.0,   -0.1,    0.0,   -0.1,   -0.0,   -0.0,    0.0,    0.0,   -0.0,   -0.1,    0.0,    0.0,   -0.0,   -0.0,    0.0,   -0.0,    0.0,   -0.1,    0.1,   -0.0,    0.0,   -0.0,   -0.0,    0.1,    0.1,    0.1,    0.0,   -0.1,   -0.0,    0.0,   -0.1,   -0.1,   -0.1,   -0.0,    0.1,    0.1,    0.1,   -0.1,    0.0,   -0.0,   -0.1,    0.0,    0.1,   -0.1,    0.0,   -0.0,   -0.1,    0.0,   -0.2,   -0.1,   -0.1,   -0.2,   -0.1,    0.1,    0.1,   -0.0,   -0.0,   -0.1,    0.1,   -0.1,    0.0,   -0.0,  999.0,    0.2,    0.2,    0.1,    0.1,  999.0,  999.0,  999.0,  999.0,  999.0
2011/11/20 23:30,  999.0,  999.0,    0.0,    0.0,   -0.1,    0.1,    0.1,   -0.1,    0.0,   -0.0,   -0.1,   -0.0,    0.0,    0.0,    0.0,   -0.1,  999.0,   -0.1,   -0.1,   -0.0,   -0.0,    0.0,    0.1,    0.0,    0.0,    0.0,   -0.1,   -0.1,    0.1,    0.0,    0.0,    0.1,   -0.0,    0.0,   -0.2,   -0.1,   -0.0,   -0.1,   -0.0,    0.1,   -0.1,   -0.1,   -0.1,    0.1,    0.1,    0.0,   -0.0,    0.0,   -0.0,   -0.0,    0.0,   -0.1,   -0.0,    0.0,   -0.1,    0.1,   -0.1,   -0.0,    0.0,    0.1,    0.1,   -0.2,   -0.0,    0.1,    0.1,    0.1,    0.2,   -0.1,  999.0,   -0.1,    0.0,    0.0,    0.2,    0.0,    0.0,  999.0,  999.0,  999.0,  999.0,  999.0
2011/11/20 23:40,  999.0,    0.1,   -0.0,    0.1,   -0.1,    0.0,    0.1,    0.1,    0.0,    0.0,    0.0,    0.0,    0.0,    0.0,   -0.0,   -0.1,    0.0,   -0.1,   -0.1,    0.1,    0.0,   -0.0,    0.0,    0.2,    0.0,   -0.1,    0.1,   -0.0,    0.2,    0.0,    0.1,    0.1,    0.1,    0.1,   -0.0,   -0.0,   -0.1,   -0.1,   -0.0,   -0.0,   -0.1,   -0.1,    0.1,   -0.0,   -0.1,    0.1,    0.1,    0.1,   -0.2,    0.0,    0.1,    0.1,    0.2,    0.0,    0.2,   -0.1,   -0.1,    0.0,   -0.1,    0.0,   -0.0,   -0.1,   -0.2,   -0.1,   -0.1,    0.1,   -0.1,  999.0,  999.0,   -0.1,   -0.1,   -0.1,   -0.1,   -0.3,   -0.1,  999.0,  999.0,  999.0,  999.0,  999.0
2011/11/20 23:50,  999.0,   -0.0,   -0.1,    0.1,    0.0,    0.1,   -0.0,    0.1,    0.0,    0.0,   -0.0,    0.0,    0.0,   -0.1,    0.0,    0.1,    0.1,   -0.0,    0.0,    0.1,   -0.1,   -0.0,   -0.0,    0.1,   -0.0,   -0.1,   -0.1,    0.1,   -0.0,    0.1,    0.0,  999.0,    0.0,    0.0,   -0.1,   -0.1,    0.2,    0.1,    0.1,    0.2,   -0.2,   -0.2,   -0.0,    0.1,   -0.1,   -0.1,   -0.0,    0.0,    0.0,   -0.0,   -0.1,   -0.0,   -0.1,   -0.2,   -0.0,   -0.1,    0.0,    0.1,    0.1,    0.0,    0.1,    0.2,    0.1,    0.0,   -0.1,   -0.2,  999.0,  999.0,    0.1,  999.0,    0.1,   -0.2,    0.1,    0.2,  999.0,  999.0,  999.0,  999.0,  999.0,  999.0
